Observation data for Clyde on 02/14/2020      Previous  Date  Next       Current Mesonet Observations  Soil Data  Daily Summary Page  Observations in Plain Language
KCL2 140600Z 08009KT M01/M05 A3034 RMK A01 T10131046  RH  078%=      5-min Rain = 0
KCL2 140601Z 08009KT M01/M05 A3034 RMK A01 T10121047  RH  078%=      5-min Rain = 0
KCL2 140602Z 08010KT M01/M05 A3034 RMK A01 T10131047  RH  078%=      5-min Rain = 0
KCL2 140603Z 08009KT M01/M05 A3034 RMK A01 T10131047  RH  078%=      5-min Rain = 0
KCL2 140604Z 08009KT M01/M05 A3034 RMK A01 T10131047  RH  078%=      5-min Rain = 0
KCL2 140605Z 07009KT M01/M05 A3034 RMK A01 T10131047  RH  078%=      5-min Rain = 0
KCL2 140606Z 08008KT M01/M05 A3034 RMK A01 T10141047  RH  078%=      5-min Rain = 0
KCL2 140607Z 08009KT M01/M05 A3034 RMK A01 T10141047  RH  078%=      5-min Rain = 0
KCL2 140608Z 08009KT M01/M05 A3034 RMK A01 T10141047  RH  078%=      5-min Rain = 0
KCL2 140609Z 08009KT M01/M05 A3034 RMK A01 T10141047  RH  078%=      5-min Rain = 0
KCL2 140610Z 07008KT M01/M05 A3034 RMK A01 T10141047  RH  078%=      5-min Rain = 0
KCL2 140611Z 08009KT M01/M05 A3034 RMK A01 T10141047  RH  078%=      5-min Rain = 0
KCL2 140612Z 08008KT M01/M05 A3034 RMK A01 T10141047  RH  078%=      5-min Rain = 0
KCL2 140613Z 08008KT M01/M05 A3034 RMK A01 T10141047  RH  078%=      5-min Rain = 0
KCL2 140614Z 08009KT M02/M05 A3034 RMK A01 T10151047  RH  078%=      5-min Rain = 0
KCL2 140615Z 08008KT M02/M05 A3034 RMK A01 T10151047  RH  079%=      5-min Rain = 0
KCL2 140616Z 08008KT M02/M05 A3034 RMK A01 T10151047  RH  079%=      5-min Rain = 0
KCL2 140617Z 08009KT M02/M05 A3034 RMK A01 T10151047  RH  079%=      5-min Rain = 0
KCL2 140618Z 08009KT M02/M05 A3034 RMK A01 T10151047  RH  079%=      5-min Rain = 0
KCL2 140619Z 08008KT M02/M05 A3034 RMK A01 T10151047  RH  079%=      5-min Rain = 0
KCL2 140620Z 08007KT M02/M05 A3034 RMK A01 T10151047  RH  079%=      5-min Rain = 0
KCL2 140621Z 08009KT M02/M05 A3034 RMK A01 T10161046  RH  080%=      5-min Rain = 0
KCL2 140622Z 08010KT M02/M05 A3034 RMK A01 T10161046  RH  080%=      5-min Rain = 0
KCL2 140623Z 08010KT M02/M05 A3034 RMK A01 T10161046  RH  080%=      5-min Rain = 0
KCL2 140624Z 09009KT M02/M05 A3034 RMK A01 T10161046  RH  080%=      5-min Rain = 0
KCL2 140625Z 08010KT M02/M05 A3034 RMK A01 T10161046  RH  080%=      5-min Rain = 0
KCL2 140626Z 08010KT M02/M05 A3034 RMK A01 T10161046  RH  080%=      5-min Rain = 0
KCL2 140627Z 08011KT M02/M05 A3034 RMK A01 T10161046  RH  080%=      5-min Rain = 0
KCL2 140628Z 09009KT M02/M05 A3034 RMK A01 T10161046  RH  080%=      5-min Rain = 0
KCL2 140629Z 08009KT M02/M05 A3034 RMK A01 T10171046  RH  080%=      5-min Rain = 0
KCL2 140630Z 08008KT M02/M05 A3034 RMK A01 T10171046  RH  081%=      5-min Rain = 0
KCL2 140631Z 08010KT M02/M05 A3034 RMK A01 T10171046  RH  081%=      5-min Rain = 0
KCL2 140632Z 09010KT M02/M05 A3034 RMK A01 T10171045  RH  081%=      5-min Rain = 0
KCL2 140633Z 09010KT M02/M05 A3034 RMK A01 T10181045  RH  082%=      5-min Rain = 0
KCL2 140634Z 09010KT M02/M05 A3034 RMK A01 T10181045  RH  082%=      5-min Rain = 0
KCL2 140635Z 09008KT M02/M05 A3034 RMK A01 T10181045  RH  082%=      5-min Rain = 0
KCL2 140636Z 09009KT M02/M05 A3034 RMK A01 T10191045  RH  082%=      5-min Rain = 0
KCL2 140637Z 08009KT M02/M04 A3034 RMK A01 T10191044  RH  083%=      5-min Rain = 0
KCL2 140638Z 09010KT M02/M04 A3034 RMK A01 T10181044  RH  083%=      5-min Rain = 0
KCL2 140639Z 08010KT M02/M04 A3034 RMK A01 T10181044  RH  083%=      5-min Rain = 0
KCL2 140640Z 09010KT M02/M05 A3034 RMK A01 T10191045  RH  082%=      5-min Rain = 0
KCL2 140641Z 08010KT M02/M05 A3034 RMK A01 T10181045  RH  082%=      5-min Rain = 0
KCL2 140642Z 08010KT M02/M05 A3034 RMK A01 T10191045  RH  082%=      5-min Rain = 0
KCL2 140643Z 08010KT M02/M05 A3034 RMK A01 T10181045  RH  082%=      5-min Rain = 0
KCL2 140644Z 08009KT M02/M05 A3034 RMK A01 T10181045  RH  082%=      5-min Rain = 0
KCL2 140645Z 08007KT M02/M05 A3034 RMK A01 T10181045  RH  082%=      5-min Rain = 0
KCL2 140646Z 09009KT M02/M05 A3034 RMK A01 T10181045  RH  082%=      5-min Rain = 0
KCL2 140647Z 08010KT M02/M05 A3034 RMK A01 T10191045  RH  082%=      5-min Rain = 0
KCL2 140648Z 08010KT M02/M05 A3034 RMK A01 T10181045  RH  082%=      5-min Rain = 0
KCL2 140649Z 08009KT M02/M05 A3034 RMK A01 T10181045  RH  082%=      5-min Rain = 0
KCL2 140650Z 08009KT M02/M05 A3034 RMK A01 T10191046  RH  082%=      5-min Rain = 0
KCL2 140651Z 09008KT M02/M05 A3034 RMK A01 T10191046  RH  082%=      5-min Rain = 0
KCL2 140652Z 09009KT M02/M05 A3034 RMK A01 T10191045  RH  082%=      5-min Rain = 0
KCL2 140653Z 08008KT M02/M05 A3034 RMK A01 T10191045  RH  083%=      5-min Rain = 0
KCL2 140654Z 08008KT M02/M05 A3034 RMK A01 T10191045  RH  083%=      5-min Rain = 0
KCL2 140655Z 08009KT M02/M05 A3034 RMK A01 T10191045  RH  083%=      5-min Rain = 0
KCL2 140656Z 08009KT M02/M05 A3034 RMK A01 T10191045  RH  082%=      5-min Rain = 0
KCL2 140657Z 08009KT M02/M05 A3034 RMK A01 T10191045  RH  082%=      5-min Rain = 0
KCL2 140658Z 08009KT M02/M05 A3034 RMK A01 T10191046  RH  082%=      5-min Rain = 0
KCL2 140659Z 08009KT M02/M05 A3034 RMK A01 T10191045  RH  082%=      5-min Rain = 0
KCL2 140700Z 08009KT M02/M05 A3034 RMK A01 T10191045  RH  082%=      5-min Rain = 0
KCL2 140701Z 08008KT M02/M05 A3034 RMK A01 T10191045  RH  082%=      5-min Rain = 0
KCL2 140702Z 08010KT M02/M05 A3034 RMK A01 T10191046  RH  082%=      5-min Rain = 0
KCL2 140703Z 08008KT M02/M05 A3034 RMK A01 T10191045  RH  082%=      5-min Rain = 0
KCL2 140704Z 08010KT M02/M05 A3034 RMK A01 T10201045  RH  083%=      5-min Rain = 0
KCL2 140705Z 09009KT M02/M05 A3034 RMK A01 T10201045  RH  083%=      5-min Rain = 0
KCL2 140706Z 09009KT M02/M05 A3034 RMK A01 T10191045  RH  083%=      5-min Rain = 0
KCL2 140707Z 09010KT M02/M05 A3034 RMK A01 T10201045  RH  083%=      5-min Rain = 0
KCL2 140708Z 09010KT M02/M05 A3034 RMK A01 T10201045  RH  083%=      5-min Rain = 0
KCL2 140709Z 09009KT M02/M05 A3034 RMK A01 T10201045  RH  083%=      5-min Rain = 0
KCL2 140710Z 09011KT M02/M05 A3034 RMK A01 T10211046  RH  083%=      5-min Rain = 0
KCL2 140711Z 09009KT M02/M05 A3034 RMK A01 T10201045  RH  083%=      5-min Rain = 0
KCL2 140712Z 09009KT M02/M05 A3034 RMK A01 T10201045  RH  083%=      5-min Rain = 0
KCL2 140713Z 09010KT M02/M05 A3034 RMK A01 T10211045  RH  083%=      5-min Rain = 0
KCL2 140714Z 09009KT M02/M05 A3034 RMK A01 T10201045  RH  083%=      5-min Rain = 0
KCL2 140715Z 09009KT M02/M05 A3034 RMK A01 T10201045  RH  083%=      5-min Rain = 0
KCL2 140716Z 09009KT M02/M05 A3034 RMK A01 T10211045  RH  083%=      5-min Rain = 0
KCL2 140717Z 09009KT M02/M05 A3034 RMK A01 T10211045  RH  083%=      5-min Rain = 0
KCL2 140718Z 09009KT M02/M05 A3034 RMK A01 T10211046  RH  083%=      5-min Rain = 0
KCL2 140719Z 09008KT M02/M05 A3034 RMK A01 T10211046  RH  083%=      5-min Rain = 0
KCL2 140720Z 09008KT M02/M05 A3034 RMK A01 T10211045  RH  083%=      5-min Rain = 0
KCL2 140721Z 09008KT M02/M05 A3034 RMK A01 T10211045  RH  083%=      5-min Rain = 0
KCL2 140722Z 09008KT M02/M05 A3034 RMK A01 T10211045  RH  084%=      5-min Rain = 0
KCL2 140723Z 09008KT M02/M05 A3034 RMK A01 T10221046  RH  084%=      5-min Rain = 0
KCL2 140724Z 09008KT M02/M05 A3034 RMK A01 T10221045  RH  084%=      5-min Rain = 0
KCL2 140725Z 10008KT M02/M05 A3034 RMK A01 T10221045  RH  084%=      5-min Rain = 0
KCL2 140726Z 09009KT M02/M05 A3034 RMK A01 T10221045  RH  085%=      5-min Rain = 0
KCL2 140727Z 10008KT M02/M05 A3034 RMK A01 T10221045  RH  084%=      5-min Rain = 0
KCL2 140728Z 10008KT M02/M05 A3034 RMK A01 T10221046  RH  084%=      5-min Rain = 0
KCL2 140729Z 09008KT M02/M05 A3034 RMK A01 T10221046  RH  084%=      5-min Rain = 0
KCL2 140730Z 09009KT M02/M05 A3034 RMK A01 T10221046  RH  084%=      5-min Rain = 0
KCL2 140731Z 10009KT M02/M05 A3035 RMK A01 T10221046  RH  084%=      5-min Rain = 0
KCL2 140732Z 09008KT M02/M05 A3035 RMK A01 T10221046  RH  084%=      5-min Rain = 0
KCL2 140733Z 10008KT M02/M05 A3035 RMK A01 T10221046  RH  084%=      5-min Rain = 0
KCL2 140734Z 09009KT M02/M05 A3035 RMK A01 T10231046  RH  084%=      5-min Rain = 0
KCL2 140735Z 10007KT M02/M05 A3035 RMK A01 T10231046  RH  084%=      5-min Rain = 0
KCL2 140736Z 09008KT M02/M05 A3035 RMK A01 T10231046  RH  084%=      5-min Rain = 0
KCL2 140737Z 09009KT M02/M05 A3035 RMK A01 T10231046  RH  084%=      5-min Rain = 0
KCL2 140738Z 09008KT M02/M05 A3035 RMK A01 T10231047  RH  084%=      5-min Rain = 0
KCL2 140739Z 09009KT M02/M05 A3035 RMK A01 T10221046  RH  084%=      5-min Rain = 0
KCL2 140740Z 09008KT M02/M05 A3035 RMK A01 T10221047  RH  083%=      5-min Rain = 0
KCL2 140741Z 09007KT M02/M05 A3035 RMK A01 T10221047  RH  083%=      5-min Rain = 0
KCL2 140742Z 09009KT M02/M05 A3035 RMK A01 T10221047  RH  083%=      5-min Rain = 0
KCL2 140743Z 09009KT M02/M05 A3035 RMK A01 T10221047  RH  083%=      5-min Rain = 0
KCL2 140744Z 09010KT M02/M05 A3035 RMK A01 T10221046  RH  083%=      5-min Rain = 0
KCL2 140745Z 09009KT M02/M05 A3035 RMK A01 T10221047  RH  083%=      5-min Rain = 0
KCL2 140746Z 10007KT M02/M05 A3034 RMK A01 T10221047  RH  083%=      5-min Rain = 0
KCL2 140747Z 10008KT M02/M05 A3034 RMK A01 T10231047  RH  083%=      5-min Rain = 0
KCL2 140748Z 10007KT M02/M05 A3034 RMK A01 T10231047  RH  084%=      5-min Rain = 0
KCL2 140749Z 09008KT M02/M05 A3034 RMK A01 T10231046  RH  084%=      5-min Rain = 0
KCL2 140750Z 10009KT M02/M05 A3034 RMK A01 T10231046  RH  084%=      5-min Rain = 0
KCL2 140751Z 10010KT M02/M05 A3034 RMK A01 T10231047  RH  084%=      5-min Rain = 0
KCL2 140752Z 10007KT M02/M05 A3034 RMK A01 T10231046  RH  084%=      5-min Rain = 0
KCL2 140753Z 10009KT M02/M05 A3034 RMK A01 T10231047  RH  084%=      5-min Rain = 0
KCL2 140754Z 10010KT M02/M05 A3035 RMK A01 T10231047  RH  084%=      5-min Rain = 0
KCL2 140755Z 10009KT M02/M05 A3035 RMK A01 T10221047  RH  084%=      5-min Rain = 0
KCL2 140756Z 10009KT M02/M05 A3035 RMK A01 T10221047  RH  083%=      5-min Rain = 0
KCL2 140757Z 10008KT M02/M05 A3035 RMK A01 T10221047  RH  083%=      5-min Rain = 0
KCL2 140758Z 10008KT M02/M05 A3035 RMK A01 T10221046  RH  083%=      5-min Rain = 0
KCL2 140759Z 10009KT M02/M05 A3034 RMK A01 T10221046  RH  084%=      5-min Rain = 0
KCL2 140800Z 10009KT M02/M05 A3034 RMK A01 T10231046  RH  084%=      5-min Rain = 0
KCL2 140801Z 10009KT M02/M05 A3034 RMK A01 T10231046  RH  084%=      5-min Rain = 0
KCL2 140802Z 11009KT M02/M05 A3034 RMK A01 T10231046  RH  084%=      5-min Rain = 0
KCL2 140803Z 10009KT M02/M05 A3034 RMK A01 T10231047  RH  084%=      5-min Rain = 0
KCL2 140804Z 10009KT M02/M05 A3034 RMK A01 T10231046  RH  084%=      5-min Rain = 0
KCL2 140805Z 09009KT M02/M05 A3034 RMK A01 T10231046  RH  084%=      5-min Rain = 0
KCL2 140806Z 10008KT M02/M05 A3034 RMK A01 T10221045  RH  084%=      5-min Rain = 0
KCL2 140807Z 09009KT M02/M05 A3034 RMK A01 T10231045  RH  085%=      5-min Rain = 0
KCL2 140808Z 09010KT M02/M05 A3034 RMK A01 T10231045  RH  085%=      5-min Rain = 0
KCL2 140809Z 09008KT M02/M05 A3034 RMK A01 T10231046  RH  085%=      5-min Rain = 0
KCL2 140810Z 09010KT M02/M05 A3034 RMK A01 T10231046  RH  085%=      5-min Rain = 0
KCL2 140811Z 09009KT M02/M05 A3034 RMK A01 T10231046  RH  085%=      5-min Rain = 0
KCL2 140812Z 09008KT M02/M05 A3034 RMK A01 T10231045  RH  085%=      5-min Rain = 0
KCL2 140813Z 09008KT M02/M05 A3034 RMK A01 T10231045  RH  085%=      5-min Rain = 0
KCL2 140814Z 10007KT M02/M04 A3034 RMK A01 T10231044  RH  085%=      5-min Rain = 0
KCL2 140815Z 09007KT M02/M04 A3034 RMK A01 T10231044  RH  085%=      5-min Rain = 0
KCL2 140816Z 09008KT M02/M05 A3034 RMK A01 T10241045  RH  086%=      5-min Rain = 0
KCL2 140817Z 09007KT M02/M05 A3034 RMK A01 T10241045  RH  086%=      5-min Rain = 0
KCL2 140818Z 09009KT M02/M05 A3034 RMK A01 T10241045  RH  086%=      5-min Rain = 0
KCL2 140819Z 09009KT M02/M04 A3034 RMK A01 T10241044  RH  086%=      5-min Rain = 0
KCL2 140820Z 09008KT M02/M05 A3034 RMK A01 T10241045  RH  086%=      5-min Rain = 0
KCL2 140821Z 09009KT M02/M05 A3034 RMK A01 T10241045  RH  086%=      5-min Rain = 0
KCL2 140822Z 09009KT M02/M05 A3034 RMK A01 T10241045  RH  086%=      5-min Rain = 0
KCL2 140823Z 09009KT M02/M04 A3034 RMK A01 T10241044  RH  086%=      5-min Rain = 0
KCL2 140824Z 10008KT M03/M05 A3034 RMK A01 T10251045  RH  086%=      5-min Rain = 0
KCL2 140825Z 10007KT M03/M05 A3034 RMK A01 T10251045  RH  086%=      5-min Rain = 0
KCL2 140826Z 10007KT M03/M05 A3034 RMK A01 T10251045  RH  086%=      5-min Rain = 0
KCL2 140827Z 10006KT M03/M05 A3034 RMK A01 T10251045  RH  086%=      5-min Rain = 0
KCL2 140828Z 10007KT M03/M05 A3034 RMK A01 T10261045  RH  087%=      5-min Rain = 0
KCL2 140829Z 10008KT M03/M05 A3034 RMK A01 T10261045  RH  087%=      5-min Rain = 0
KCL2 140830Z 10009KT M03/M05 A3035 RMK A01 T10261045  RH  087%=      5-min Rain = 0
KCL2 140831Z 10008KT M03/M04 A3035 RMK A01 T10261044  RH  087%=      5-min Rain = 0
KCL2 140832Z 09006KT M03/M05 A3035 RMK A01 T10261045  RH  087%=      5-min Rain = 0
KCL2 140833Z 10006KT M03/M04 A3035 RMK A01 T10261044  RH  087%=      5-min Rain = 0
KCL2 140834Z 10006KT M03/M05 A3035 RMK A01 T10261045  RH  087%=      5-min Rain = 0
KCL2 140835Z 10007KT M03/M05 A3034 RMK A01 T10261045  RH  087%=      5-min Rain = 0
KCL2 140836Z 11006KT M03/M05 A3034 RMK A01 T10271045  RH  087%=      5-min Rain = 0
KCL2 140837Z 11007KT M03/M04 A3034 RMK A01 T10261044  RH  088%=      5-min Rain = 0
KCL2 140838Z 11007KT M03/M04 A3034 RMK A01 T10261044  RH  088%=      5-min Rain = 0
KCL2 140839Z 11008KT M03/M04 A3034 RMK A01 T10271044  RH  088%=      5-min Rain = 0
KCL2 140840Z 11008KT M03/M04 A3034 RMK A01 T10271044  RH  088%=      5-min Rain = 0
KCL2 140841Z 10007KT M03/M04 A3034 RMK A01 T10271044  RH  088%=      5-min Rain = 0
KCL2 140842Z 10007KT M03/M04 A3034 RMK A01 T10271044  RH  088%=      5-min Rain = 0
KCL2 140843Z 10007KT M03/M04 A3034 RMK A01 T10271044  RH  088%=      5-min Rain = 0
KCL2 140844Z 10007KT M03/M04 A3034 RMK A01 T10271043  RH  088%=      5-min Rain = 0
KCL2 140845Z 10005KT M03/M04 A3034 RMK A01 T10271043  RH  089%=      5-min Rain = 0
KCL2 140846Z 10005KT M03/M04 A3034 RMK A01 T10271043  RH  089%=      5-min Rain = 0
KCL2 140847Z 10007KT M03/M04 A3034 RMK A01 T10271043  RH  089%=      5-min Rain = 0
KCL2 140848Z 10007KT M03/M04 A3034 RMK A01 T10281043  RH  089%=      5-min Rain = 0
KCL2 140849Z 11007KT M03/M04 A3034 RMK A01 T10281043  RH  089%=      5-min Rain = 0
KCL2 140850Z 11006KT M03/M04 A3034 RMK A01 T10281043  RH  089%=      5-min Rain = 0
KCL2 140851Z 11006KT M03/M04 A3034 RMK A01 T10281044  RH  089%=      5-min Rain = 0
KCL2 140852Z 12005KT M03/M04 A3034 RMK A01 T10281044  RH  089%=      5-min Rain = 0
KCL2 140853Z 12006KT M03/M04 A3035 RMK A01 T10291044  RH  089%=      5-min Rain = 0
KCL2 140854Z 11007KT M03/M04 A3035 RMK A01 T10291044  RH  089%=      5-min Rain = 0
KCL2 140855Z 11005KT M03/M04 A3035 RMK A01 T10291044  RH  089%=      5-min Rain = 0
KCL2 140856Z 10005KT M03/M04 A3035 RMK A01 T10291044  RH  089%=      5-min Rain = 0
KCL2 140857Z 10006KT M03/M04 A3035 RMK A01 T10291044  RH  090%=      5-min Rain = 0
KCL2 140858Z 10006KT M03/M04 A3035 RMK A01 T10291043  RH  090%=      5-min Rain = 0
KCL2 140859Z 10005KT M03/M04 A3035 RMK A01 T10291043  RH  090%=      5-min Rain = 0
KCL2 140900Z 09005KT M03/M04 A3035 RMK A01 T10291043  RH  090%=      5-min Rain = 0
KCL2 140901Z 10005KT M03/M04 A3035 RMK A01 T10291043  RH  090%=      5-min Rain = 0
KCL2 140902Z 10006KT M03/M04 A3035 RMK A01 T10291043  RH  090%=      5-min Rain = 0
KCL2 140903Z 10005KT M03/M04 A3035 RMK A01 T10291043  RH  090%=      5-min Rain = 0
KCL2 140904Z 10005KT M03/M04 A3035 RMK A01 T10291043  RH  090%=      5-min Rain = 0
KCL2 140905Z 10005KT M03/M04 A3035 RMK A01 T10291043  RH  090%=      5-min Rain = 0
KCL2 140906Z 10006KT M03/M04 A3035 RMK A01 T10301043  RH  090%=      5-min Rain = 0
KCL2 140907Z 10005KT M03/M04 A3035 RMK A01 T10301043  RH  090%=      5-min Rain = 0
KCL2 140908Z 10005KT M03/M04 A3035 RMK A01 T10301043  RH  090%=      5-min Rain = 0
KCL2 140909Z 10005KT M03/M04 A3035 RMK A01 T10301043  RH  090%=      5-min Rain = 0
KCL2 140910Z 10007KT M03/M04 A3035 RMK A01 T10301043  RH  090%=      5-min Rain = 0
KCL2 140911Z 10006KT M03/M04 A3035 RMK A01 T10301043  RH  091%=      5-min Rain = 0
KCL2 140912Z 10006KT M03/M04 A3035 RMK A01 T10301043  RH  091%=      5-min Rain = 0
KCL2 140913Z 10006KT M03/M04 A3035 RMK A01 T10301043  RH  091%=      5-min Rain = 0
KCL2 140914Z 10006KT M03/M04 A3035 RMK A01 T10301043  RH  091%=      5-min Rain = 0
KCL2 140915Z 11005KT M03/M04 A3035 RMK A01 T10311044  RH  091%=      5-min Rain = 0
KCL2 140916Z 11006KT M03/M04 A3035 RMK A01 T10311043  RH  091%=      5-min Rain = 0
KCL2 140917Z 11007KT M03/M04 A3035 RMK A01 T10311044  RH  091%=      5-min Rain = 0
KCL2 140918Z 12007KT M03/M04 A3035 RMK A01 T10311044  RH  091%=      5-min Rain = 0
KCL2 140919Z 12007KT M03/M04 A3035 RMK A01 T10311043  RH  091%=      5-min Rain = 0
KCL2 140920Z 12008KT M03/M04 A3035 RMK A01 T10311043  RH  091%=      5-min Rain = 0
KCL2 140921Z 12005KT M03/M04 A3035 RMK A01 T10311043  RH  091%=      5-min Rain = 0
KCL2 140922Z 11005KT M03/M04 A3035 RMK A01 T10311043  RH  091%=      5-min Rain = 0
KCL2 140923Z 11005KT M03/M04 A3035 RMK A01 T10311044  RH  091%=      5-min Rain = 0
KCL2 140924Z 11006KT M03/M04 A3035 RMK A01 T10321044  RH  091%=      5-min Rain = 0
KCL2 140925Z 11005KT M03/M04 A3035 RMK A01 T10321044  RH  092%=      5-min Rain = 0
KCL2 140926Z 11005KT M03/M04 A3035 RMK A01 T10321044  RH  092%=      5-min Rain = 0
KCL2 140927Z 11005KT M03/M04 A3035 RMK A01 T10321043  RH  092%=      5-min Rain = 0
KCL2 140928Z 11006KT M03/M04 A3035 RMK A01 T10321044  RH  092%=      5-min Rain = 0
KCL2 140929Z 11005KT M03/M04 A3035 RMK A01 T10321044  RH  092%=      5-min Rain = 0
KCL2 140930Z 10006KT M03/M04 A3035 RMK A01 T10321044  RH  092%=      5-min Rain = 0
KCL2 140931Z 10007KT M03/M04 A3035 RMK A01 T10321044  RH  092%=      5-min Rain = 0
KCL2 140932Z 11006KT M03/M04 A3035 RMK A01 T10321043  RH  092%=      5-min Rain = 0
KCL2 140933Z 10007KT M03/M04 A3035 RMK A01 T10321043  RH  092%=      5-min Rain = 0
KCL2 140934Z 10006KT M03/M04 A3035 RMK A01 T10331043  RH  092%=      5-min Rain = 0
KCL2 140935Z 10007KT M03/M04 A3035 RMK A01 T10331043  RH  092%=      5-min Rain = 0
KCL2 140936Z 11007KT M03/M04 A3035 RMK A01 T10331043  RH  092%=      5-min Rain = 0
KCL2 140937Z 11007KT M03/M04 A3035 RMK A01 T10331043  RH  092%=      5-min Rain = 0
KCL2 140938Z 11006KT M03/M04 A3035 RMK A01 T10321043  RH  092%=      5-min Rain = 0
KCL2 140939Z 12007KT M03/M04 A3035 RMK A01 T10321043  RH  092%=      5-min Rain = 0
KCL2 140940Z 11006KT M03/M04 A3035 RMK A01 T10331043  RH  092%=      5-min Rain = 0
KCL2 140941Z 12006KT M03/M04 A3035 RMK A01 T10331043  RH  092%=      5-min Rain = 0
KCL2 140942Z 11007KT M03/M04 A3035 RMK A01 T10331043  RH  092%=      5-min Rain = 0
KCL2 140943Z 11006KT M03/M04 A3035 RMK A01 T10331043  RH  093%=      5-min Rain = 0
KCL2 140944Z 11007KT M03/M04 A3035 RMK A01 T10331043  RH  093%=      5-min Rain = 0
KCL2 140945Z 11006KT M03/M04 A3035 RMK A01 T10331043  RH  093%=      5-min Rain = 0
KCL2 140946Z 11006KT M03/M04 A3035 RMK A01 T10331043  RH  093%=      5-min Rain = 0
KCL2 140947Z 11007KT M03/M04 A3035 RMK A01 T10331043  RH  093%=      5-min Rain = 0
KCL2 140948Z 11006KT M03/M04 A3035 RMK A01 T10331043  RH  093%=      5-min Rain = 0
KCL2 140949Z 11006KT M03/M04 A3035 RMK A01 T10331042  RH  093%=      5-min Rain = 0
KCL2 140950Z 11006KT M03/M04 A3035 RMK A01 T10331042  RH  093%=      5-min Rain = 0
KCL2 140951Z 11006KT M03/M04 A3035 RMK A01 T10331042  RH  093%=      5-min Rain = 0
KCL2 140952Z 11006KT M03/M04 A3035 RMK A01 T10331042  RH  093%=      5-min Rain = 0
KCL2 140953Z 11006KT M03/M04 A3035 RMK A01 T10331042  RH  093%=      5-min Rain = 0
KCL2 140954Z 11006KT M03/M04 A3035 RMK A01 T10331042  RH  093%=      5-min Rain = 0
KCL2 140955Z 11007KT M03/M04 A3035 RMK A01 T10331042  RH  093%=      5-min Rain = 0
KCL2 140956Z 11006KT M03/M04 A3035 RMK A01 T10331042  RH  094%=      5-min Rain = 0
KCL2 140957Z 11007KT M03/M04 A3035 RMK A01 T10331042  RH  094%=      5-min Rain = 0
KCL2 140958Z 11007KT M03/M04 A3035 RMK A01 T10331042  RH  094%=      5-min Rain = 0
KCL2 140959Z 10006KT M03/M04 A3035 RMK A01 T10321041  RH  094%=      5-min Rain = 0
KCL2 141000Z 10007KT M03/M04 A3035 RMK A01 T10331042  RH  094%=      5-min Rain = 0
KCL2 141001Z 10007KT M03/M04 A3035 RMK A01 T10331041  RH  094%=      5-min Rain = 0
KCL2 141002Z 10007KT M03/M04 A3035 RMK A01 T10321041  RH  094%=      5-min Rain = 0
KCL2 141003Z 10007KT M03/M04 A3035 RMK A01 T10321040  RH  094%=      5-min Rain = 0
KCL2 141004Z 11007KT M03/M04 A3035 RMK A01 T10321040  RH  094%=      5-min Rain = 0
KCL2 141005Z 11006KT M03/M04 A3034 RMK A01 T10321040  RH  094%=      5-min Rain = 0
KCL2 141006Z 11006KT M03/M04 A3034 RMK A01 T10321040  RH  094%=      5-min Rain = 0
KCL2 141007Z 11006KT M03/M04 A3034 RMK A01 T10321041  RH  094%=      5-min Rain = 0
KCL2 141008Z 11007KT M03/M04 A3034 RMK A01 T10321041  RH  094%=      5-min Rain = 0
KCL2 141009Z 10006KT M03/M04 A3034 RMK A01 T10321040  RH  094%=      5-min Rain = 0
KCL2 141010Z 10006KT M03/M04 A3034 RMK A01 T10311040  RH  094%=      5-min Rain = 0
KCL2 141011Z 10007KT M03/M04 A3035 RMK A01 T10321040  RH  094%=      5-min Rain = 0
KCL2 141012Z 10005KT M03/M04 A3035 RMK A01 T10321040  RH  094%=      5-min Rain = 0
KCL2 141013Z 10006KT M03/M04 A3035 RMK A01 T10311040  RH  094%=      5-min Rain = 0
KCL2 141014Z 10007KT M03/M04 A3034 RMK A01 T10311040  RH  094%=      5-min Rain = 0
KCL2 141015Z 11006KT M03/M04 A3034 RMK A01 T10321040  RH  094%=      5-min Rain = 0
KCL2 141016Z 11007KT M03/M04 A3034 RMK A01 T10311040  RH  094%=      5-min Rain = 0
KCL2 141017Z 11006KT M03/M04 A3034 RMK A01 T10311040  RH  094%=      5-min Rain = 0
KCL2 141018Z 10007KT M03/M04 A3034 RMK A01 T10311040  RH  094%=      5-min Rain = 0
KCL2 141019Z 10007KT M03/M04 A3034 RMK A01 T10321040  RH  094%=      5-min Rain = 0
KCL2 141020Z 10006KT M03/M04 A3034 RMK A01 T10321040  RH  094%=      5-min Rain = 0
KCL2 141021Z 10007KT M03/M04 A3035 RMK A01 T10311039  RH  094%=      5-min Rain = 0
KCL2 141022Z 10006KT M03/M04 A3035 RMK A01 T10321040  RH  094%=      5-min Rain = 0
KCL2 141023Z 09007KT M03/M04 A3035 RMK A01 T10311039  RH  094%=      5-min Rain = 0
KCL2 141024Z 09007KT M03/M04 A3034 RMK A01 T10321040  RH  094%=      5-min Rain = 0
KCL2 141025Z 09006KT M03/M04 A3034 RMK A01 T10321040  RH  094%=      5-min Rain = 0
KCL2 141026Z 10007KT M03/M04 A3034 RMK A01 T10321040  RH  094%=      5-min Rain = 0
KCL2 141027Z 10006KT M03/M04 A3034 RMK A01 T10321040  RH  094%=      5-min Rain = 0
KCL2 141028Z 10006KT M03/M04 A3034 RMK A01 T10321040  RH  094%=      5-min Rain = 0
KCL2 141029Z 10006KT M03/M04 A3034 RMK A01 T10321040  RH  094%=      5-min Rain = 0
KCL2 141030Z 10006KT M03/M04 A3034 RMK A01 T10321040  RH  094%=      5-min Rain = 0
KCL2 141031Z 11007KT M03/M04 A3034 RMK A01 T10321040  RH  094%=      5-min Rain = 0
KCL2 141032Z 11006KT M03/M04 A3034 RMK A01 T10321040  RH  094%=      5-min Rain = 0
KCL2 141033Z 11007KT M03/M04 A3034 RMK A01 T10321040  RH  094%=      5-min Rain = 0
KCL2 141034Z 11006KT M03/M04 A3034 RMK A01 T10331040  RH  094%=      5-min Rain = 0
KCL2 141035Z 10007KT M03/M04 A3034 RMK A01 T10321040  RH  095%=      5-min Rain = 0
KCL2 141036Z 10007KT M03/M04 A3035 RMK A01 T10321039  RH  095%=      5-min Rain = 0
KCL2 141037Z 11006KT M03/M04 A3034 RMK A01 T10321039  RH  095%=      5-min Rain = 0
KCL2 141038Z 10006KT M03/M04 A3034 RMK A01 T10321040  RH  095%=      5-min Rain = 0
KCL2 141039Z 11007KT M03/M04 A3034 RMK A01 T10321040  RH  095%=      5-min Rain = 0
KCL2 141040Z 11006KT M03/M04 A3034 RMK A01 T10321039  RH  095%=      5-min Rain = 0
KCL2 141041Z 10006KT M03/M04 A3034 RMK A01 T10321039  RH  095%=      5-min Rain = 0
KCL2 141042Z 11005KT M03/M04 A3034 RMK A01 T10321040  RH  095%=      5-min Rain = 0
KCL2 141043Z 10006KT M03/M04 A3034 RMK A01 T10321040  RH  094%=      5-min Rain = 0
KCL2 141044Z 11006KT M03/M04 A3034 RMK A01 T10321040  RH  095%=      5-min Rain = 0
KCL2 141045Z 10006KT M03/M04 A3035 RMK A01 T10331040  RH  095%=      5-min Rain = 0
KCL2 141046Z 10007KT M03/M04 A3035 RMK A01 T10331040  RH  095%=      5-min Rain = 0
KCL2 141047Z 10006KT M03/M04 A3035 RMK A01 T10331040  RH  095%=      5-min Rain = 0
KCL2 141048Z 10007KT M03/M04 A3035 RMK A01 T10331040  RH  095%=      5-min Rain = 0
KCL2 141049Z 10006KT M03/M04 A3035 RMK A01 T10331040  RH  095%=      5-min Rain = 0
KCL2 141050Z 10006KT M03/M04 A3035 RMK A01 T10331040  RH  095%=      5-min Rain = 0
KCL2 141051Z 10006KT M03/M04 A3035 RMK A01 T10331040  RH  095%=      5-min Rain = 0
KCL2 141052Z 10007KT M03/M04 A3035 RMK A01 T10321040  RH  095%=      5-min Rain = 0
KCL2 141053Z 10005KT M03/M04 A3035 RMK A01 T10321039  RH  095%=      5-min Rain = 0
KCL2 141054Z 10006KT M03/M04 A3035 RMK A01 T10321039  RH  095%=      5-min Rain = 0
KCL2 141055Z 10006KT M03/M04 A3035 RMK A01 T10321039  RH  095%=      5-min Rain = 0
KCL2 141056Z 10007KT M03/M04 A3035 RMK A01 T10321039  RH  095%=      5-min Rain = 0
KCL2 141057Z 10006KT M03/M04 A3035 RMK A01 T10321039  RH  095%=      5-min Rain = 0
KCL2 141058Z 11007KT M03/M04 A3035 RMK A01 T10321039  RH  095%=      5-min Rain = 0
KCL2 141059Z 10006KT M03/M04 A3035 RMK A01 T10321039  RH  095%=      5-min Rain = 0
KCL2 141100Z 11006KT M03/M04 A3035 RMK A01 T10321039  RH  095%=      5-min Rain = 0
KCL2 141101Z 10007KT M03/M04 A3035 RMK A01 T10321039  RH  095%=      5-min Rain = 0
KCL2 141102Z 10007KT M03/M04 A3035 RMK A01 T10321039  RH  095%=      5-min Rain = 0
KCL2 141103Z 10006KT M03/M04 A3035 RMK A01 T10321039  RH  095%=      5-min Rain = 0
KCL2 141104Z 10006KT M03/M04 A3035 RMK A01 T10321039  RH  095%=      5-min Rain = 0
KCL2 141105Z 10007KT M03/M04 A3035 RMK A01 T10321039  RH  095%=      5-min Rain = 0
KCL2 141106Z 10007KT M03/M04 A3035 RMK A01 T10321039  RH  095%=      5-min Rain = 0
KCL2 141107Z 10006KT M03/M04 A3035 RMK A01 T10321039  RH  095%=      5-min Rain = 0
KCL2 141108Z 10006KT M03/M04 A3035 RMK A01 T10321039  RH  095%=      5-min Rain = 0
KCL2 141109Z 11006KT M03/M04 A3035 RMK A01 T10321039  RH  095%=      5-min Rain = 0
KCL2 141110Z 10007KT M03/M04 A3035 RMK A01 T10321039  RH  095%=      5-min Rain = 0
KCL2 141111Z 10006KT M03/M04 A3035 RMK A01 T10321039  RH  095%=      5-min Rain = 0
KCL2 141112Z 10007KT M03/M04 A3035 RMK A01 T10321040  RH  095%=      5-min Rain = 0
KCL2 141113Z 10006KT M03/M04 A3035 RMK A01 T10321040  RH  095%=      5-min Rain = 0
KCL2 141114Z 10006KT M03/M04 A3035 RMK A01 T10321039  RH  095%=      5-min Rain = 0
KCL2 141115Z 10006KT M03/M04 A3035 RMK A01 T10321039  RH  095%=      5-min Rain = 0
KCL2 141116Z 10006KT M03/M04 A3035 RMK A01 T10321039  RH  095%=      5-min Rain = 0
KCL2 141117Z 10007KT M03/M04 A3035 RMK A01 T10321040  RH  095%=      5-min Rain = 0
KCL2 141118Z 10006KT M03/M04 A3035 RMK A01 T10331040  RH  095%=      5-min Rain = 0
KCL2 141119Z 10006KT M03/M04 A3035 RMK A01 T10321040  RH  095%=      5-min Rain = 0
KCL2 141120Z 10006KT M03/M04 A3035 RMK A01 T10331040  RH  095%=      5-min Rain = 0
KCL2 141121Z 10007KT M03/M04 A3035 RMK A01 T10331040  RH  095%=      5-min Rain = 0
KCL2 141122Z 10007KT M03/M04 A3035 RMK A01 T10331040  RH  095%=      5-min Rain = 0
KCL2 141123Z 10008KT M03/M04 A3035 RMK A01 T10321040  RH  095%=      5-min Rain = 0
KCL2 141124Z 10007KT M03/M04 A3035 RMK A01 T10321039  RH  095%=      5-min Rain = 0
KCL2 141125Z 10006KT M03/M04 A3035 RMK A01 T10321039  RH  095%=      5-min Rain = 0
KCL2 141126Z 10005KT M03/M04 A3035 RMK A01 T10321039  RH  095%=      5-min Rain = 0
KCL2 141127Z 10006KT M03/M04 A3035 RMK A01 T10321040  RH  094%=      5-min Rain = 0
KCL2 141128Z 10007KT M03/M04 A3035 RMK A01 T10321040  RH  095%=      5-min Rain = 0
KCL2 141129Z 11006KT M03/M04 A3035 RMK A01 T10331040  RH  095%=      5-min Rain = 0
KCL2 141130Z 10006KT M03/M04 A3035 RMK A01 T10321040  RH  095%=      5-min Rain = 0
KCL2 141131Z 10007KT M03/M04 A3035 RMK A01 T10321040  RH  095%=      5-min Rain = 0
KCL2 141132Z 11006KT M03/M04 A3035 RMK A01 T10321040  RH  095%=      5-min Rain = 0
KCL2 141133Z 11006KT M03/M04 A3035 RMK A01 T10321040  RH  095%=      5-min Rain = 0
KCL2 141134Z 10005KT M03/M04 A3035 RMK A01 T10321040  RH  095%=      5-min Rain = 0
KCL2 141135Z 11005KT M03/M04 A3035 RMK A01 T10321040  RH  095%=      5-min Rain = 0
KCL2 141136Z 11005KT M03/M04 A3036 RMK A01 T10331040  RH  095%=      5-min Rain = 0
KCL2 141137Z 11006KT M03/M04 A3036 RMK A01 T10331040  RH  095%=      5-min Rain = 0
KCL2 141138Z 11004KT M03/M04 A3036 RMK A01 T10331040  RH  095%=      5-min Rain = 0
KCL2 141139Z 11005KT M03/M04 A3036 RMK A01 T10331040  RH  095%=      5-min Rain = 0
KCL2 141140Z 11005KT M03/M04 A3036 RMK A01 T10331040  RH  095%=      5-min Rain = 0
KCL2 141141Z 10005KT M03/M04 A3036 RMK A01 T10331040  RH  095%=      5-min Rain = 0
KCL2 141142Z 10005KT M03/M04 A3036 RMK A01 T10331040  RH  095%=      5-min Rain = 0
KCL2 141143Z 10005KT M03/M04 A3036 RMK A01 T10331039  RH  095%=      5-min Rain = 0
KCL2 141144Z 10004KT M03/M04 A3036 RMK A01 T10331040  RH  095%=      5-min Rain = 0
KCL2 141145Z 10004KT M03/M04 A3036 RMK A01 T10331039  RH  095%=      5-min Rain = 0
KCL2 141146Z 11004KT M03/M04 A3036 RMK A01 T10341040  RH  095%=      5-min Rain = 0
KCL2 141147Z 11004KT M03/M04 A3036 RMK A01 T10341041  RH  095%=      5-min Rain = 0
KCL2 141148Z 11004KT M03/M04 A3036 RMK A01 T10341041  RH  095%=      5-min Rain = 0
KCL2 141149Z 12005KT M03/M04 A3036 RMK A01 T10341041  RH  095%=      5-min Rain = 0
KCL2 141150Z 12005KT M04/M04 A3036 RMK A01 T10351042  RH  095%=      5-min Rain = 0
KCL2 141151Z 11004KT M04/M04 A3036 RMK A01 T10351042  RH  095%=      5-min Rain = 0
KCL2 141152Z 11004KT M04/M04 A3036 RMK A01 T10351042  RH  095%=      5-min Rain = 0
KCL2 141153Z 12005KT M04/M04 A3036 RMK A01 T10351042  RH  095%=      5-min Rain = 0
KCL2 141154Z 11004KT M04/M04 A3036 RMK A01 T10361043  RH  095%=      5-min Rain = 0
KCL2 141155Z 11004KT M04/M04 A3036 RMK A01 T10361043  RH  095%=      5-min Rain = 0
KCL2 141156Z 11004KT M04/M04 A3037 RMK A01 T10361043  RH  095%=      5-min Rain = 0
KCL2 141157Z 11005KT M04/M04 A3036 RMK A01 T10361043  RH  095%=      5-min Rain = 0
KCL2 141158Z 11004KT M04/M04 A3036 RMK A01 T10361043  RH  095%=      5-min Rain = 0
KCL2 141159Z 11005KT M04/M04 A3036 RMK A01 T10361042  RH  095%=      5-min Rain = 0
KCL2 141200Z 12005KT M04/M04 A3036 RMK A01 T10361042  RH  095%=      5-min Rain = 0
KCL2 141201Z 12005KT M04/M04 A3036 RMK A01 T10361042  RH  096%=      5-min Rain = 0
KCL2 141202Z 12005KT M04/M04 A3036 RMK A01 T10361042  RH  095%=      5-min Rain = 0
KCL2 141203Z 12005KT M04/M04 A3037 RMK A01 T10361043  RH  095%=      5-min Rain = 0
KCL2 141204Z 12005KT M04/M04 A3037 RMK A01 T10361042  RH  095%=      5-min Rain = 0
KCL2 141205Z 12005KT M04/M04 A3037 RMK A01 T10361042  RH  095%=      5-min Rain = 0
KCL2 141206Z 12006KT M04/M04 A3037 RMK A01 T10361042  RH  095%=      5-min Rain = 0
KCL2 141207Z 12005KT M04/M04 A3037 RMK A01 T10361042  RH  095%=      5-min Rain = 0
KCL2 141208Z 11005KT M04/M04 A3037 RMK A01 T10361042  RH  096%=      5-min Rain = 0
KCL2 141209Z 11005KT M04/M04 A3037 RMK A01 T10361042  RH  096%=      5-min Rain = 0
KCL2 141210Z 11005KT M04/M04 A3037 RMK A01 T10361042  RH  096%=      5-min Rain = 0
KCL2 141211Z 11005KT M04/M04 A3037 RMK A01 T10361043  RH  095%=      5-min Rain = 0
KCL2 141212Z 11004KT M04/M04 A3037 RMK A01 T10371043  RH  095%=      5-min Rain = 0
KCL2 141213Z 11005KT M04/M04 A3037 RMK A01 T10371043  RH  095%=      5-min Rain = 0
KCL2 141214Z 11004KT M04/M04 A3037 RMK A01 T10371043  RH  095%=      5-min Rain = 0
KCL2 141215Z 12004KT M04/M04 A3037 RMK A01 T10371044  RH  095%=      5-min Rain = 0
KCL2 141216Z 12005KT M04/M04 A3037 RMK A01 T10381044  RH  095%=      5-min Rain = 0
KCL2 141217Z 12005KT M04/M04 A3037 RMK A01 T10381044  RH  095%=      5-min Rain = 0
KCL2 141218Z 11004KT M04/M04 A3037 RMK A01 T10381044  RH  095%=      5-min Rain = 0
KCL2 141219Z 11004KT M04/M04 A3037 RMK A01 T10381044  RH  095%=      5-min Rain = 0
KCL2 141220Z 11004KT M04/M05 A3037 RMK A01 T10391045  RH  095%=      5-min Rain = 0
KCL2 141221Z 11004KT M04/M05 A3037 RMK A01 T10391045  RH  095%=      5-min Rain = 0
KCL2 141222Z 12004KT M04/M05 A3037 RMK A01 T10391045  RH  095%=      5-min Rain = 0
KCL2 141223Z 11004KT M04/M05 A3037 RMK A01 T10391045  RH  095%=      5-min Rain = 0
KCL2 141224Z 12004KT M04/M05 A3037 RMK A01 T10401046  RH  095%=      5-min Rain = 0
KCL2 141225Z 11004KT M04/M05 A3037 RMK A01 T10401046  RH  095%=      5-min Rain = 0
KCL2 141226Z 11004KT M04/M05 A3037 RMK A01 T10401046  RH  095%=      5-min Rain = 0
KCL2 141227Z 11004KT M04/M05 A3037 RMK A01 T10401046  RH  096%=      5-min Rain = 0
KCL2 141228Z 11004KT M04/M05 A3037 RMK A01 T10401046  RH  095%=      5-min Rain = 0
KCL2 141229Z 11003KT M04/M05 A3037 RMK A01 T10401047  RH  095%=      5-min Rain = 0
KCL2 141230Z 10003KT M04/M05 A3037 RMK A01 T10411047  RH  096%=      5-min Rain = 0
KCL2 141231Z 10003KT M04/M05 A3037 RMK A01 T10411047  RH  096%=      5-min Rain = 0
KCL2 141232Z 10004KT M04/M05 A3037 RMK A01 T10411047  RH  096%=      5-min Rain = 0
KCL2 141233Z 09004KT M04/M05 A3037 RMK A01 T10401046  RH  096%=      5-min Rain = 0
KCL2 141234Z 10004KT M04/M05 A3037 RMK A01 T10401046  RH  096%=      5-min Rain = 0
KCL2 141235Z 10003KT M04/M05 A3037 RMK A01 T10401046  RH  096%=      5-min Rain = 0
KCL2 141236Z 10004KT M04/M05 A3037 RMK A01 T10401046  RH  096%=      5-min Rain = 0
KCL2 141237Z 10004KT M04/M05 A3037 RMK A01 T10401046  RH  096%=      5-min Rain = 0
KCL2 141238Z 10004KT M04/M05 A3037 RMK A01 T10401046  RH  096%=      5-min Rain = 0
KCL2 141239Z 11004KT M04/M05 A3037 RMK A01 T10401046  RH  096%=      5-min Rain = 0
KCL2 141240Z 11004KT M04/M05 A3037 RMK A01 T10411047  RH  096%=      5-min Rain = 0
KCL2 141241Z 11004KT M04/M05 A3037 RMK A01 T10411047  RH  096%=      5-min Rain = 0
KCL2 141242Z 11004KT M04/M05 A3037 RMK A01 T10411047  RH  096%=      5-min Rain = 0
KCL2 141243Z 12003KT M04/M05 A3037 RMK A01 T10411047  RH  096%=      5-min Rain = 0
KCL2 141244Z 12004KT M04/M05 A3037 RMK A01 T10421048  RH  096%=      5-min Rain = 0
KCL2 141245Z 12003KT M04/M05 A3037 RMK A01 T10421048  RH  096%=      5-min Rain = 0
KCL2 141246Z 12004KT M04/M05 A3037 RMK A01 T10431049  RH  095%=      5-min Rain = 0
KCL2 141247Z 12003KT M04/M05 A3037 RMK A01 T10431050  RH  095%=      5-min Rain = 0
KCL2 141248Z 12004KT M04/M05 A3037 RMK A01 T10431050  RH  096%=      5-min Rain = 0
KCL2 141249Z 11004KT M04/M05 A3037 RMK A01 T10441050  RH  096%=      5-min Rain = 0
KCL2 141250Z 11004KT M04/M05 A3037 RMK A01 T10441050  RH  096%=      5-min Rain = 0
KCL2 141251Z 10004KT M04/M05 A3038 RMK A01 T10431049  RH  096%=      5-min Rain = 0
KCL2 141252Z 09004KT M04/M05 A3038 RMK A01 T10431048  RH  096%=      5-min Rain = 0
KCL2 141253Z 09004KT M04/M05 A3038 RMK A01 T10421048  RH  096%=      5-min Rain = 0
KCL2 141254Z 09004KT M04/M05 A3038 RMK A01 T10421048  RH  096%=      5-min Rain = 0
KCL2 141255Z 09003KT M04/M05 A3038 RMK A01 T10421048  RH  096%=      5-min Rain = 0
KCL2 141256Z 10004KT M04/M05 A3038 RMK A01 T10421048  RH  096%=      5-min Rain = 0
KCL2 141257Z 10005KT M04/M05 A3038 RMK A01 T10421048  RH  096%=      5-min Rain = 0
KCL2 141258Z 10005KT M04/M05 A3038 RMK A01 T10421048  RH  096%=      5-min Rain = 0
KCL2 141259Z 10005KT M04/M05 A3038 RMK A01 T10431048  RH  096%=      5-min Rain = 0
KCL2 141300Z 10005KT M04/M05 A3038 RMK A01 T10431048  RH  096%=      5-min Rain = 0
KCL2 141301Z 10004KT M04/M05 A3038 RMK A01 T10421048  RH  096%=      5-min Rain = 0
KCL2 141302Z 09004KT M04/M05 A3038 RMK A01 T10421048  RH  096%=      5-min Rain = 0
KCL2 141303Z 09004KT M04/M05 A3038 RMK A01 T10421047  RH  096%=      5-min Rain = 0
KCL2 141304Z 08003KT M04/M05 A3038 RMK A01 T10411047  RH  096%=      5-min Rain = 0
KCL2 141305Z 08004KT M04/M05 A3038 RMK A01 T10421047  RH  096%=      5-min Rain = 0
KCL2 141306Z 09004KT M04/M05 A3038 RMK A01 T10421048  RH  096%=      5-min Rain = 0
KCL2 141307Z 09004KT M04/M05 A3038 RMK A01 T10421048  RH  096%=      5-min Rain = 0
KCL2 141308Z 08004KT M04/M05 A3038 RMK A01 T10421048  RH  096%=      5-min Rain = 0
KCL2 141309Z 09005KT M04/M05 A3038 RMK A01 T10421048  RH  096%=      5-min Rain = 0
KCL2 141310Z 09005KT M04/M05 A3038 RMK A01 T10421048  RH  096%=      5-min Rain = 0
KCL2 141311Z 09004KT M04/M05 A3038 RMK A01 T10421048  RH  096%=      5-min Rain = 0
KCL2 141312Z 09005KT M04/M05 A3038 RMK A01 T10421047  RH  096%=      5-min Rain = 0
KCL2 141313Z 09004KT M04/M05 A3038 RMK A01 T10411047  RH  096%=      5-min Rain = 0
KCL2 141314Z 10004KT M04/M05 A3038 RMK A01 T10421048  RH  096%=      5-min Rain = 0
KCL2 141315Z 10005KT M04/M05 A3038 RMK A01 T10421048  RH  095%=      5-min Rain = 0
KCL2 141316Z 10005KT M04/M05 A3038 RMK A01 T10421049  RH  095%=      5-min Rain = 0
KCL2 141317Z 10005KT M04/M05 A3038 RMK A01 T10431049  RH  095%=      5-min Rain = 0
KCL2 141318Z 10005KT M04/M05 A3038 RMK A01 T10431049  RH  096%=      5-min Rain = 0
KCL2 141319Z 10005KT M04/M05 A3038 RMK A01 T10421048  RH  096%=      5-min Rain = 0
KCL2 141320Z 10005KT M04/M05 A3038 RMK A01 T10421048  RH  096%=      5-min Rain = 0
KCL2 141321Z 10005KT M04/M05 A3038 RMK A01 T10431048  RH  096%=      5-min Rain = 0
KCL2 141322Z 11005KT M04/M05 A3038 RMK A01 T10421048  RH  096%=      5-min Rain = 0
KCL2 141323Z 10005KT M04/M05 A3038 RMK A01 T10421048  RH  096%=      5-min Rain = 0
KCL2 141324Z 10005KT M04/M05 A3038 RMK A01 T10421047  RH  096%=      5-min Rain = 0
KCL2 141325Z 10005KT M04/M05 A3038 RMK A01 T10411047  RH  096%=      5-min Rain = 0
KCL2 141326Z 10005KT M04/M05 A3038 RMK A01 T10411047  RH  096%=      5-min Rain = 0
KCL2 141327Z 10004KT M04/M05 A3038 RMK A01 T10411047  RH  096%=      5-min Rain = 0
KCL2 141328Z 10005KT M04/M05 A3038 RMK A01 T10411046  RH  096%=      5-min Rain = 0
KCL2 141329Z 10005KT M04/M05 A3038 RMK A01 T10411046  RH  096%=      5-min Rain = 0
KCL2 141330Z 10004KT M04/M05 A3038 RMK A01 T10411046  RH  096%=      5-min Rain = 0
KCL2 141331Z 10004KT M04/M05 A3038 RMK A01 T10411046  RH  096%=      5-min Rain = 0
KCL2 141332Z 10005KT M04/M05 A3038 RMK A01 T10411046  RH  096%=      5-min Rain = 0
KCL2 141333Z 10005KT M04/M05 A3038 RMK A01 T10401046  RH  096%=      5-min Rain = 0
KCL2 141334Z 10004KT M04/M05 A3038 RMK A01 T10401045  RH  096%=      5-min Rain = 0
KCL2 141335Z 10004KT M04/M05 A3038 RMK A01 T10401045  RH  096%=      5-min Rain = 0
KCL2 141336Z 10004KT M04/M05 A3038 RMK A01 T10401045  RH  096%=      5-min Rain = 0
KCL2 141337Z 10004KT M04/M05 A3038 RMK A01 T10391045  RH  096%=      5-min Rain = 0
KCL2 141338Z 10003KT M04/M05 A3038 RMK A01 T10391045  RH  096%=      5-min Rain = 0
KCL2 141339Z 10003KT M04/M05 A3038 RMK A01 T10391045  RH  096%=      5-min Rain = 0
KCL2 141340Z 11004KT M04/M05 A3038 RMK A01 T10391045  RH  096%=      5-min Rain = 0
KCL2 141341Z 11004KT M04/M05 A3038 RMK A01 T10391045  RH  096%=      5-min Rain = 0
KCL2 141342Z 10005KT M04/M05 A3038 RMK A01 T10391045  RH  096%=      5-min Rain = 0
KCL2 141343Z 10005KT M04/M04 A3038 RMK A01 T10381044  RH  096%=      5-min Rain = 0
KCL2 141344Z 10005KT M04/M04 A3038 RMK A01 T10381044  RH  095%=      5-min Rain = 0
KCL2 141345Z 10005KT M04/M04 A3038 RMK A01 T10371044  RH  095%=      5-min Rain = 0
KCL2 141346Z 10005KT M04/M04 A3038 RMK A01 T10371044  RH  095%=      5-min Rain = 0
KCL2 141347Z 10005KT M04/M04 A3038 RMK A01 T10371044  RH  095%=      5-min Rain = 0
KCL2 141348Z 10004KT M04/M04 A3038 RMK A01 T10361044  RH  095%=      5-min Rain = 0
KCL2 141349Z 10005KT M04/M04 A3038 RMK A01 T10361043  RH  095%=      5-min Rain = 0
KCL2 141350Z 10005KT M04/M04 A3039 RMK A01 T10361044  RH  094%=      5-min Rain = 0
KCL2 141351Z 10005KT M04/M04 A3039 RMK A01 T10351044  RH  094%=      5-min Rain = 0
KCL2 141352Z 10006KT M04/M04 A3039 RMK A01 T10351044  RH  094%=      5-min Rain = 0
KCL2 141353Z 11005KT M04/M04 A3038 RMK A01 T10351044  RH  094%=      5-min Rain = 0
KCL2 141354Z 11005KT M04/M04 A3038 RMK A01 T10351044  RH  094%=      5-min Rain = 0
KCL2 141355Z 10006KT M03/M04 A3038 RMK A01 T10341043  RH  094%=      5-min Rain = 0
KCL2 141356Z 11005KT M03/M04 A3038 RMK A01 T10341043  RH  093%=      5-min Rain = 0
KCL2 141357Z 11004KT M03/M04 A3039 RMK A01 T10341043  RH  093%=      5-min Rain = 0
KCL2 141358Z 11005KT M03/M04 A3039 RMK A01 T10331043  RH  093%=      5-min Rain = 0
KCL2 141359Z 10006KT M03/M04 A3039 RMK A01 T10331043  RH  093%=      5-min Rain = 0
KCL2 141400Z 10005KT M03/M04 A3039 RMK A01 T10321043  RH  092%=      5-min Rain = 0
KCL2 141401Z 10005KT M03/M04 A3039 RMK A01 T10321043  RH  092%=      5-min Rain = 0
KCL2 141402Z 10005KT M03/M04 A3039 RMK A01 T10321043  RH  092%=      5-min Rain = 0
KCL2 141403Z 11005KT M03/M04 A3039 RMK A01 T10311043  RH  092%=      5-min Rain = 0
KCL2 141404Z 11005KT M03/M04 A3039 RMK A01 T10311043  RH  092%=      5-min Rain = 0
KCL2 141405Z 11005KT M03/M04 A3039 RMK A01 T10321044  RH  091%=      5-min Rain = 0
KCL2 141406Z 11004KT M03/M04 A3039 RMK A01 T10311043  RH  091%=      5-min Rain = 0
KCL2 141407Z 11005KT M03/M04 A3039 RMK A01 T10301042  RH  091%=      5-min Rain = 0
KCL2 141408Z 11006KT M03/M04 A3039 RMK A01 T10301041  RH  092%=      5-min Rain = 0
KCL2 141409Z 11005KT M03/M04 A3039 RMK A01 T10291042  RH  091%=      5-min Rain = 0
KCL2 141410Z 11006KT M03/M04 A3039 RMK A01 T10301042  RH  091%=      5-min Rain = 0
KCL2 141411Z 11004KT M03/M04 A3039 RMK A01 T10291042  RH  091%=      5-min Rain = 0
KCL2 141412Z 11005KT M03/M04 A3039 RMK A01 T10291042  RH  091%=      5-min Rain = 0
KCL2 141413Z 11006KT M03/M04 A3039 RMK A01 T10291042  RH  091%=      5-min Rain = 0
KCL2 141414Z 11006KT M03/M04 A3039 RMK A01 T10281042  RH  091%=      5-min Rain = 0
KCL2 141415Z 11005KT M03/M04 A3039 RMK A01 T10281042  RH  090%=      5-min Rain = 0
KCL2 141416Z 11004KT M03/M04 A3039 RMK A01 T10281041  RH  090%=      5-min Rain = 0
KCL2 141417Z 11004KT M03/M04 A3039 RMK A01 T10281042  RH  090%=      5-min Rain = 0
KCL2 141418Z 12004KT M03/M04 A3039 RMK A01 T10271041  RH  090%=      5-min Rain = 0
KCL2 141419Z 11004KT M03/M04 A3039 RMK A01 T10261040  RH  090%=      5-min Rain = 0
KCL2 141420Z 10004KT M03/M04 A3039 RMK A01 T10261040  RH  090%=      5-min Rain = 0
KCL2 141421Z 11004KT M03/M04 A3039 RMK A01 T10261041  RH  090%=      5-min Rain = 0
KCL2 141422Z 10004KT M03/M04 A304 RMK A01 T10261041  RH  090%=      5-min Rain = 0
KCL2 141423Z 10004KT M03/M04 A304 RMK A01 T10261041  RH  090%=      5-min Rain = 0
KCL2 141424Z 11006KT M03/M04 A304 RMK A01 T10251040  RH  090%=      5-min Rain = 0
KCL2 141425Z 10005KT M03/M04 A3039 RMK A01 T10251040  RH  089%=      5-min Rain = 0
KCL2 141426Z 10006KT M03/M04 A3039 RMK A01 T10251041  RH  089%=      5-min Rain = 0
KCL2 141427Z 11005KT M03/M04 A3039 RMK A01 T10261041  RH  089%=      5-min Rain = 0
KCL2 141428Z 13005KT M03/M04 A3039 RMK A01 T10251041  RH  089%=      5-min Rain = 0
KCL2 141429Z 12005KT M02/M04 A3039 RMK A01 T10241039  RH  090%=      5-min Rain = 0
KCL2 141430Z 11004KT M02/M04 A3039 RMK A01 T10231037  RH  090%=      5-min Rain = 0
KCL2 141431Z 11004KT M02/M04 A3039 RMK A01 T10231037  RH  090%=      5-min Rain = 0
KCL2 141432Z 11005KT M02/M04 A3039 RMK A01 T10221037  RH  089%=      5-min Rain = 0
KCL2 141433Z 10004KT M02/M04 A304 RMK A01 T10221038  RH  089%=      5-min Rain = 0
KCL2 141434Z 11005KT M02/M04 A304 RMK A01 T10221038  RH  089%=      5-min Rain = 0
KCL2 141435Z 11005KT M02/M04 A304 RMK A01 T10221038  RH  089%=      5-min Rain = 0
KCL2 141436Z 11006KT M02/M04 A304 RMK A01 T10221038  RH  089%=      5-min Rain = 0
KCL2 141437Z 12007KT M02/M04 A304 RMK A01 T10221039  RH  088%=      5-min Rain = 0
KCL2 141438Z 12007KT M02/M04 A304 RMK A01 T10221039  RH  088%=      5-min Rain = 0
KCL2 141439Z 11007KT M02/M04 A304 RMK A01 T10221039  RH  088%=      5-min Rain = 0
KCL2 141440Z 11006KT M02/M04 A304 RMK A01 T10221039  RH  088%=      5-min Rain = 0
KCL2 141441Z 11006KT M02/M04 A304 RMK A01 T10221038  RH  089%=      5-min Rain = 0
KCL2 141442Z 11006KT M02/M04 A304 RMK A01 T10221038  RH  089%=      5-min Rain = 0
KCL2 141443Z 10007KT M02/M04 A304 RMK A01 T10221039  RH  088%=      5-min Rain = 0
KCL2 141444Z 11007KT M02/M04 A304 RMK A01 T10221039  RH  088%=      5-min Rain = 0
KCL2 141445Z 12007KT M02/M04 A304 RMK A01 T10221039  RH  088%=      5-min Rain = 0
KCL2 141446Z 12007KT M02/M04 A304 RMK A01 T10221039  RH  088%=      5-min Rain = 0
KCL2 141447Z 12005KT M02/M04 A304 RMK A01 T10211037  RH  089%=      5-min Rain = 0
KCL2 141448Z 10005KT M02/M04 A304 RMK A01 T10211037  RH  089%=      5-min Rain = 0
KCL2 141449Z 09005KT M02/M04 A304 RMK A01 T10201036  RH  089%=      5-min Rain = 0
KCL2 141450Z 10006KT M02/M04 A304 RMK A01 T10201036  RH  089%=      5-min Rain = 0
KCL2 141451Z 10008KT M02/M04 A304 RMK A01 T10191036  RH  089%=      5-min Rain = 0
KCL2 141452Z 10008KT M02/M04 A304 RMK A01 T10201036  RH  088%=      5-min Rain = 0
KCL2 141453Z 11007KT M02/M04 A304 RMK A01 T10201037  RH  088%=      5-min Rain = 0
KCL2 141454Z 11009KT M02/M04 A304 RMK A01 T10191036  RH  089%=      5-min Rain = 0
KCL2 141455Z 12006KT M02/M04 A304 RMK A01 T10191035  RH  088%=      5-min Rain = 0
KCL2 141456Z 13006KT M02/M04 A304 RMK A01 T10181035  RH  088%=      5-min Rain = 0
KCL2 141457Z 12008KT M02/M04 A304 RMK A01 T10181035  RH  088%=      5-min Rain = 0
KCL2 141458Z 12007KT M02/M04 A304 RMK A01 T10171035  RH  088%=      5-min Rain = 0
KCL2 141459Z 11005KT M02/M04 A304 RMK A01 T10171035  RH  087%=      5-min Rain = 0
KCL2 141500Z 13007KT M02/M03 A304 RMK A01 T10171034  RH  088%=      5-min Rain = 0
KCL2 141501Z 11008KT M02/M03 A304 RMK A01 T10161033  RH  088%=      5-min Rain = 0
KCL2 141502Z 11008KT M02/M03 A304 RMK A01 T10151034  RH  087%=      5-min Rain = 0
KCL2 141503Z 11008KT M02/M03 A304 RMK A01 T10151033  RH  087%=      5-min Rain = 0
KCL2 141504Z 11007KT M02/M03 A3041 RMK A01 T10151034  RH  087%=      5-min Rain = 0
KCL2 141505Z 12006KT M02/M04 A3041 RMK A01 T10151036  RH  086%=      5-min Rain = 0
KCL2 141506Z 13007KT M02/M04 A3041 RMK A01 T10151035  RH  086%=      5-min Rain = 0
KCL2 141507Z 14008KT M02/M04 A304 RMK A01 T10151035  RH  086%=      5-min Rain = 0
KCL2 141508Z 14006KT M01/M04 A304 RMK A01 T10141036  RH  085%=      5-min Rain = 0
KCL2 141509Z 13006KT M01/M04 A304 RMK A01 T10141035  RH  086%=      5-min Rain = 0
KCL2 141510Z 13004KT M01/M03 A304 RMK A01 T10121033  RH  086%=      5-min Rain = 0
KCL2 141511Z 12007KT M01/M03 A304 RMK A01 T10111033  RH  085%=      5-min Rain = 0
KCL2 141512Z 14008KT M01/M03 A304 RMK A01 T10111033  RH  085%=      5-min Rain = 0
KCL2 141513Z 13007KT M01/M03 A304 RMK A01 T10101033  RH  084%=      5-min Rain = 0
KCL2 141514Z 12006KT M01/M03 A3041 RMK A01 T10101033  RH  084%=      5-min Rain = 0
KCL2 141515Z 12007KT M01/M03 A3041 RMK A01 T10081032  RH  084%=      5-min Rain = 0
KCL2 141516Z 12006KT M01/M03 A304 RMK A01 T10081033  RH  084%=      5-min Rain = 0
KCL2 141517Z 11007KT M01/M03 A304 RMK A01 T10081032  RH  084%=      5-min Rain = 0
KCL2 141518Z 12005KT M01/M03 A304 RMK A01 T10071031  RH  084%=      5-min Rain = 0
KCL2 141519Z 13005KT M01/M03 A304 RMK A01 T10071031  RH  084%=      5-min Rain = 0
KCL2 141520Z 13006KT M01/M03 A304 RMK A01 T10051029  RH  084%=      5-min Rain = 0
KCL2 141521Z 12008KT M01/M03 A3041 RMK A01 T10061033  RH  082%=      5-min Rain = 0
KCL2 141522Z 12009KT M01/M03 A3041 RMK A01 T10071034  RH  082%=      5-min Rain = 0
KCL2 141523Z 12008KT M01/M03 A3041 RMK A01 T10071034  RH  082%=      5-min Rain = 0
KCL2 141524Z 13008KT M01/M04 A3041 RMK A01 T10071035  RH  082%=      5-min Rain = 0
KCL2 141525Z 13007KT M01/M03 A3041 RMK A01 T10071034  RH  082%=      5-min Rain = 0
KCL2 141526Z 13009KT M01/M04 A3041 RMK A01 T10061035  RH  081%=      5-min Rain = 0
KCL2 141527Z 12008KT M01/M04 A3041 RMK A01 T10061037  RH  080%=      5-min Rain = 0
KCL2 141528Z 13010KT M01/M04 A3041 RMK A01 T10051035  RH  080%=      5-min Rain = 0
KCL2 141529Z 13008KT M01/M04 A3041 RMK A01 T10051038  RH  078%=      5-min Rain = 0
KCL2 141530Z 14007KT M01/M04 A3041 RMK A01 T10061039  RH  078%=      5-min Rain = 0
KCL2 141531Z 13007KT M01/M04 A3041 RMK A01 T10061038  RH  079%=      5-min Rain = 0
KCL2 141532Z 13007KT M01/M04 A3041 RMK A01 T10051037  RH  079%=      5-min Rain = 0
KCL2 141533Z 13007KT M01/M04 A3041 RMK A01 T10051035  RH  080%=      5-min Rain = 0
KCL2 141534Z 14006KT M00/M04 A3041 RMK A01 T10041035  RH  080%=      5-min Rain = 0
KCL2 141535Z 15005KT M00/M03 A3041 RMK A01 T10021033  RH  080%=      5-min Rain = 0
KCL2 141536Z 14004KT M00/M03 A3041 RMK A01 T10011032  RH  079%=      5-min Rain = 0
KCL2 141537Z 13006KT 00/03 A3041 RMK A01 T00000-32  RH  079%=      5-min Rain = 0
KCL2 141538Z 12008KT 00/M03 A3041 RMK A01 T00011032  RH  078%=      5-min Rain = 0
KCL2 141539Z 12008KT 00/M03 A3041 RMK A01 T00021033  RH  078%=      5-min Rain = 0
KCL2 141540Z 13007KT 00/M03 A3041 RMK A01 T00021033  RH  078%=      5-min Rain = 0
KCL2 141541Z 11007KT 00/M04 A3041 RMK A01 T00011035  RH  077%=      5-min Rain = 0
KCL2 141542Z 12008KT 00/M03 A3041 RMK A01 T00021032  RH  078%=      5-min Rain = 0
KCL2 141543Z 12007KT 00/M03 A3041 RMK A01 T00021033  RH  077%=      5-min Rain = 0
KCL2 141544Z 13007KT 00/M03 A3041 RMK A01 T00021034  RH  077%=      5-min Rain = 0
KCL2 141545Z 14007KT 00/M03 A3041 RMK A01 T00021032  RH  078%=      5-min Rain = 0
KCL2 141546Z 13007KT 00/M03 A3041 RMK A01 T00021034  RH  077%=      5-min Rain = 0
KCL2 141547Z 13006KT 00/M03 A3041 RMK A01 T00021034  RH  077%=      5-min Rain = 0
KCL2 141548Z 11008KT 00/M03 A3041 RMK A01 T00031033  RH  077%=      5-min Rain = 0
KCL2 141549Z 12008KT 00/M03 A3041 RMK A01 T00041033  RH  076%=      5-min Rain = 0
KCL2 141550Z 12009KT 00/M03 A3041 RMK A01 T00031034  RH  076%=      5-min Rain = 0
KCL2 141551Z 13008KT 00/M04 A3041 RMK A01 T00021035  RH  076%=      5-min Rain = 0
KCL2 141552Z 13006KT 00/M04 A3041 RMK A01 T00011035  RH  077%=      5-min Rain = 0
KCL2 141553Z 11007KT 00/M03 A3041 RMK A01 T00011033  RH  078%=      5-min Rain = 0
KCL2 141554Z 11006KT 00/M03 A3041 RMK A01 T00031031  RH  078%=      5-min Rain = 0
KCL2 141555Z 13008KT 00/M03 A3041 RMK A01 T00031031  RH  078%=      5-min Rain = 0
KCL2 141556Z 13007KT 00/M03 A3041 RMK A01 T00041031  RH  077%=      5-min Rain = 0
KCL2 141557Z 13006KT 01/M03 A3041 RMK A01 T00051031  RH  077%=      5-min Rain = 0
KCL2 141558Z 12006KT 01/M03 A3041 RMK A01 T00051031  RH  076%=      5-min Rain = 0
KCL2 141559Z 11008KT 01/M03 A3041 RMK A01 T00061031  RH  076%=      5-min Rain = 0
KCL2 141600Z 11008KT 01/M03 A3041 RMK A01 T00061031  RH  076%=      5-min Rain = 0
KCL2 141601Z 13006KT 01/M03 A3041 RMK A01 T00051032  RH  076%=      5-min Rain = 0
KCL2 141602Z 12005KT 00/M04 A3041 RMK A01 T00031035  RH  076%=      5-min Rain = 0
KCL2 141603Z 10005KT 00/M03 A3041 RMK A01 T00041031  RH  078%=      5-min Rain = 0
KCL2 141604Z 11006KT 01/M03 A3041 RMK A01 T00051031  RH  077%=      5-min Rain = 0
KCL2 141605Z 12006KT 01/M03 A3041 RMK A01 T00071027  RH  078%=      5-min Rain = 0
KCL2 141606Z 13006KT 01/M03 A3041 RMK A01 T00091027  RH  077%=      5-min Rain = 0
KCL2 141607Z 14006KT 01/M03 A3041 RMK A01 T00091028  RH  076%=      5-min Rain = 0
KCL2 141608Z 16006KT 01/M03 A3041 RMK A01 T00101028  RH  076%=      5-min Rain = 0
KCL2 141609Z 15006KT 01/M03 A3041 RMK A01 T00101028  RH  076%=      5-min Rain = 0
KCL2 141610Z 14008KT 01/M03 A3041 RMK A01 T00121026  RH  076%=      5-min Rain = 0
KCL2 141611Z 14008KT 01/M03 A3041 RMK A01 T00121028  RH  075%=      5-min Rain = 0
KCL2 141612Z 16006KT 01/M03 A3041 RMK A01 T00101030  RH  074%=      5-min Rain = 0
KCL2 141613Z 17005KT 01/M03 A3041 RMK A01 T00101027  RH  076%=      5-min Rain = 0
KCL2 141614Z 17005KT 01/M02 A3041 RMK A01 T00131023  RH  077%=      5-min Rain = 0
KCL2 141615Z 14007KT 02/M02 A3041 RMK A01 T00161022  RH  076%=      5-min Rain = 0
KCL2 141616Z 15009KT 02/M03 A3041 RMK A01 T00161026  RH  074%=      5-min Rain = 0
KCL2 141617Z 15008KT 01/M03 A3041 RMK A01 T00141028  RH  074%=      5-min Rain = 0
KCL2 141618Z 16009KT 01/M03 A3041 RMK A01 T00121027  RH  075%=      5-min Rain = 0
KCL2 141619Z 15009KT 01/M03 A3041 RMK A01 T00121026  RH  076%=      5-min Rain = 0
KCL2 141620Z 15009KT 01/M03 A3041 RMK A01 T00131025  RH  076%=      5-min Rain = 0
KCL2 141621Z 17010KT 01/M02 A3041 RMK A01 T00141024  RH  076%=      5-min Rain = 0
KCL2 141622Z 15006KT 01/M03 A3041 RMK A01 T00141025  RH  075%=      5-min Rain = 0
KCL2 141623Z 16008KT 02/M02 A304 RMK A01 T00151022  RH  076%=      5-min Rain = 0
KCL2 141624Z 16008KT 02/M03 A3041 RMK A01 T00151026  RH  074%=      5-min Rain = 0
KCL2 141625Z 16006KT 01/M03 A304 RMK A01 T00141025  RH  075%=      5-min Rain = 0
KCL2 141626Z 16006KT 01/M03 A304 RMK A01 T00131026  RH  075%=      5-min Rain = 0
KCL2 141627Z 15009KT 02/M02 A3041 RMK A01 T00151021  RH  077%=      5-min Rain = 0
KCL2 141628Z 13009KT 02/M02 A3041 RMK A01 T00161023  RH  075%=      5-min Rain = 0
KCL2 141629Z 14010KT 02/M02 A304 RMK A01 T00161023  RH  075%=      5-min Rain = 0
KCL2 141630Z 15007KT 02/M02 A304 RMK A01 T00171021  RH  076%=      5-min Rain = 0
KCL2 141631Z 15008KT 02/M02 A304 RMK A01 T00171023  RH  075%=      5-min Rain = 0
KCL2 141632Z 16006KT 02/M02 A304 RMK A01 T00161024  RH  075%=      5-min Rain = 0
KCL2 141633Z 14009KT 02/M02 A304 RMK A01 T00171021  RH  076%=      5-min Rain = 0
KCL2 141634Z 13010KT 02/M02 A304 RMK A01 T00171022  RH  075%=      5-min Rain = 0
KCL2 141635Z 13008KT 02/M02 A304 RMK A01 T00191019  RH  076%=      5-min Rain = 0
KCL2 141636Z 12008KT 02/M02 A304 RMK A01 T00201020  RH  075%=      5-min Rain = 0
KCL2 141637Z 12008KT 02/M02 A304 RMK A01 T00201018  RH  076%=      5-min Rain = 0
KCL2 141638Z 13007KT 02/M02 A304 RMK A01 T00211019  RH  075%=      5-min Rain = 0
KCL2 141639Z 13006KT 02/M02 A304 RMK A01 T00221019  RH  074%=      5-min Rain = 0
KCL2 141640Z 15005KT 02/M02 A304 RMK A01 T00221019  RH  075%=      5-min Rain = 0
KCL2 141641Z 13007KT 02/M02 A304 RMK A01 T00241016  RH  075%=      5-min Rain = 0
KCL2 141642Z 14008KT 03/M02 A304 RMK A01 T00251019  RH  073%=      5-min Rain = 0
KCL2 141643Z 13009KT 02/M02 A304 RMK A01 T00231019  RH  073%=      5-min Rain = 0
KCL2 141644Z 13009KT 02/M02 A304 RMK A01 T00231019  RH  074%=      5-min Rain = 0
KCL2 141645Z 12007KT 02/M02 A304 RMK A01 T00231019  RH  074%=      5-min Rain = 0
KCL2 141646Z 14007KT 02/M02 A304 RMK A01 T00241017  RH  074%=      5-min Rain = 0
KCL2 141647Z 14006KT 03/M01 A304 RMK A01 T00261014  RH  075%=      5-min Rain = 0
KCL2 141648Z 14007KT 03/M02 A304 RMK A01 T00291015  RH  073%=      5-min Rain = 0
KCL2 141649Z 13009KT 03/M02 A304 RMK A01 T00291017  RH  072%=      5-min Rain = 0
KCL2 141650Z 13009KT 03/M02 A304 RMK A01 T00291016  RH  072%=      5-min Rain = 0
KCL2 141651Z 12008KT 03/M02 A304 RMK A01 T00291018  RH  071%=      5-min Rain = 0
KCL2 141652Z 15005KT 03/M02 A3039 RMK A01 T00271020  RH  071%=      5-min Rain = 0
KCL2 141653Z 18010KT 03/M02 A3039 RMK A01 T00271017  RH  073%=      5-min Rain = 0
KCL2 141654Z 16008KT 03/M02 A3039 RMK A01 T00301016  RH  072%=      5-min Rain = 0
KCL2 141655Z 15009KT 03/M02 A3039 RMK A01 T00321015  RH  071%=      5-min Rain = 0
KCL2 141656Z 13009KT 03/M02 A3039 RMK A01 T00331015  RH  070%=      5-min Rain = 0
KCL2 141657Z 14007KT 03/M02 A3039 RMK A01 T00341018  RH  069%=      5-min Rain = 0
KCL2 141658Z 15008KT 03/M02 A3039 RMK A01 T00341017  RH  069%=      5-min Rain = 0
KCL2 141659Z 15007KT 04/M02 A3039 RMK A01 T00361015  RH  070%=      5-min Rain = 0
KCL2 141700Z 12009KT 04/M02 A3039 RMK A01 T00371018  RH  067%=      5-min Rain = 0
KCL2 141701Z 14011KT 04/M02 A3039 RMK A01 T00371018  RH  067%=      5-min Rain = 0
KCL2 141702Z 14008KT 04/M02 A3039 RMK A01 T00391016  RH  067%=      5-min Rain = 0
KCL2 141703Z 13007KT 04/M02 A3039 RMK A01 T00381021  RH  065%=      5-min Rain = 0
KCL2 141704Z 13006KT 04/M02 A3039 RMK A01 T00361019  RH  067%=      5-min Rain = 0
KCL2 141705Z 12005KT 04/M02 A3039 RMK A01 T00361016  RH  069%=      5-min Rain = 0
KCL2 141706Z 17006KT 04/M02 A3039 RMK A01 T00381015  RH  069%=      5-min Rain = 0
KCL2 141707Z 16009KT 04/M02 A3039 RMK A01 T00391018  RH  067%=      5-min Rain = 0
KCL2 141708Z 16010KT 04/M02 A3039 RMK A01 T00381021  RH  065%=      5-min Rain = 0
KCL2 141709Z 15009KT 04/M02 A3039 RMK A01 T00361023  RH  066%=      5-min Rain = 0
KCL2 141710Z 14006KT 04/M02 A3039 RMK A01 T00351022  RH  066%=      5-min Rain = 0
KCL2 141711Z 16007KT 04/M02 A3039 RMK A01 T00361019  RH  068%=      5-min Rain = 0
KCL2 141712Z 17007KT 04/M02 A3039 RMK A01 T00401016  RH  067%=      5-min Rain = 0
KCL2 141713Z 16007KT 04/M02 A3039 RMK A01 T00401019  RH  066%=      5-min Rain = 0
KCL2 141714Z 15007KT 04/M02 A3039 RMK A01 T00411019  RH  065%=      5-min Rain = 0
KCL2 141715Z 16009KT 04/M02 A3039 RMK A01 T00421015  RH  066%=      5-min Rain = 0
KCL2 141716Z 18008KT 04/M02 A3039 RMK A01 T00421020  RH  064%=      5-min Rain = 0
KCL2 141717Z 14007KT 04/M02 A3039 RMK A01 T00401019  RH  065%=      5-min Rain = 0
KCL2 141718Z 13007KT 04/M02 A3039 RMK A01 T00421016  RH  066%=      5-min Rain = 0
KCL2 141719Z 12007KT 04/M02 A3039 RMK A01 T00441017  RH  065%=      5-min Rain = 0
KCL2 141720Z 13008KT 05/M02 A3039 RMK A01 T00451015  RH  065%=      5-min Rain = 0
KCL2 141721Z 13009KT 05/M02 A3039 RMK A01 T00451017  RH  064%=      5-min Rain = 0
KCL2 141722Z 15006KT 04/M02 A3038 RMK A01 T00441019  RH  063%=      5-min Rain = 0
KCL2 141723Z 17006KT 04/M02 A3038 RMK A01 T00431019  RH  064%=      5-min Rain = 0
KCL2 141724Z 16007KT 04/M02 A3038 RMK A01 T00431019  RH  064%=      5-min Rain = 0
KCL2 141725Z 15006KT 04/M02 A3038 RMK A01 T00441016  RH  065%=      5-min Rain = 0
KCL2 141726Z 13006KT 05/M01 A3038 RMK A01 T00471014  RH  064%=      5-min Rain = 0
KCL2 141727Z 13008KT 05/M02 A3038 RMK A01 T00491019  RH  062%=      5-min Rain = 0
KCL2 141728Z 13005KT 05/M02 A3038 RMK A01 T00491019  RH  061%=      5-min Rain = 0
KCL2 141729Z 13006KT 05/M02 A3038 RMK A01 T00511018  RH  061%=      5-min Rain = 0
KCL2 141730Z 17007KT 05/M02 A3038 RMK A01 T00511018  RH  061%=      5-min Rain = 0
KCL2 141731Z 17008KT 05/M02 A3038 RMK A01 T00531018  RH  060%=      5-min Rain = 0
KCL2 141732Z 16007KT 05/M02 A3038 RMK A01 T00511022  RH  059%=      5-min Rain = 0
KCL2 141733Z 16006KT 05/M02 A3038 RMK A01 T00491022  RH  060%=      5-min Rain = 0
KCL2 141734Z 17009KT 05/M02 A3038 RMK A01 T00501020  RH  060%=      5-min Rain = 0
KCL2 141735Z 16008KT 05/M02 A3038 RMK A01 T00521024  RH  058%=      5-min Rain = 0
KCL2 141736Z 15008KT 05/M03 A3038 RMK A01 T00521025  RH  058%=      5-min Rain = 0
KCL2 141737Z 15008KT 05/M02 A3038 RMK A01 T00511024  RH  058%=      5-min Rain = 0
KCL2 141738Z 16009KT 05/M02 A3038 RMK A01 T00511023  RH  059%=      5-min Rain = 0
KCL2 141739Z 15007KT 05/M02 A3038 RMK A01 T00511022  RH  059%=      5-min Rain = 0
KCL2 141740Z 17007KT 05/M02 A3038 RMK A01 T00531020  RH  059%=      5-min Rain = 0
KCL2 141741Z 18007KT 06/M02 A3038 RMK A01 T00551019  RH  059%=      5-min Rain = 0
KCL2 141742Z 16006KT 06/M02 A3038 RMK A01 T00571019  RH  058%=      5-min Rain = 0
KCL2 141743Z 18008KT 06/M02 A3037 RMK A01 T00581018  RH  058%=      5-min Rain = 0
KCL2 141744Z 16008KT 06/M02 A3037 RMK A01 T00591021  RH  057%=      5-min Rain = 0
KCL2 141745Z 13010KT 06/M02 A3038 RMK A01 T00591023  RH  055%=      5-min Rain = 0
KCL2 141746Z 13011KT 06/M03 A3038 RMK A01 T00591027  RH  054%=      5-min Rain = 0
KCL2 141747Z 12009KT 06/M03 A3038 RMK A01 T00551028  RH  055%=      5-min Rain = 0
KCL2 141748Z 13010KT 05/M03 A3038 RMK A01 T00541026  RH  056%=      5-min Rain = 0
KCL2 141749Z 13010KT 06/M03 A3038 RMK A01 T00551025  RH  056%=      5-min Rain = 0
KCL2 141750Z 14009KT 06/M03 A3038 RMK A01 T00561027  RH  055%=      5-min Rain = 0
KCL2 141751Z 14009KT 06/M03 A3038 RMK A01 T00561025  RH  056%=      5-min Rain = 0
KCL2 141752Z 16009KT 06/M03 A3037 RMK A01 T00571027  RH  054%=      5-min Rain = 0
KCL2 141753Z 16009KT 06/M03 A3037 RMK A01 T00591028  RH  054%=      5-min Rain = 0
KCL2 141754Z 14010KT 06/M03 A3037 RMK A01 T00581028  RH  054%=      5-min Rain = 0
KCL2 141755Z 17009KT 06/M03 A3037 RMK A01 T00581026  RH  055%=      5-min Rain = 0
KCL2 141756Z 16008KT 06/M03 A3037 RMK A01 T00601025  RH  054%=      5-min Rain = 0
KCL2 141757Z 15008KT 06/M02 A3037 RMK A01 T00611024  RH  054%=      5-min Rain = 0
KCL2 141758Z 14006KT 06/M03 A3037 RMK A01 T00601025  RH  055%=      5-min Rain = 0
KCL2 141759Z 16008KT 06/M02 A3037 RMK A01 T00621022  RH  055%=      5-min Rain = 0
KCL2 141800Z 15008KT 06/M03 A3037 RMK A01 T00621027  RH  053%=      5-min Rain = 0
KCL2 141801Z 16009KT 06/M03 A3037 RMK A01 T00611027  RH  053%=      5-min Rain = 0
KCL2 141802Z 14007KT 06/M03 A3037 RMK A01 T00601025  RH  054%=      5-min Rain = 0
KCL2 141803Z 13010KT 06/M02 A3037 RMK A01 T00621024  RH  054%=      5-min Rain = 0
KCL2 141804Z 14010KT 06/M03 A3037 RMK A01 T00631026  RH  053%=      5-min Rain = 0
KCL2 141805Z 16010KT 06/M03 A3037 RMK A01 T00631025  RH  053%=      5-min Rain = 0
KCL2 141806Z 17012KT 06/M03 A3037 RMK A01 T00641025  RH  053%=      5-min Rain = 0
KCL2 141807Z 16010KT 06/M03 A3037 RMK A01 T00641026  RH  053%=      5-min Rain = 0
KCL2 141808Z 16009KT 06/M03 A3037 RMK A01 T00611025  RH  054%=      5-min Rain = 0
KCL2 141809Z 16008KT 06/M03 A3037 RMK A01 T00611025  RH  054%=      5-min Rain = 0
KCL2 141810Z 17008KT 06/M02 A3037 RMK A01 T00631023  RH  054%=      5-min Rain = 0
KCL2 141811Z 17007KT 07/M02 A3036 RMK A01 T00661023  RH  053%=      5-min Rain = 0
KCL2 141812Z 16006KT 07/M03 A3036 RMK A01 T00661025  RH  052%=      5-min Rain = 0
KCL2 141813Z 14010KT 07/M02 A3036 RMK A01 T00661023  RH  053%=      5-min Rain = 0
KCL2 141814Z 13008KT 07/M02 A3036 RMK A01 T00681023  RH  052%=      5-min Rain = 0
KCL2 141815Z 15009KT 07/M02 A3036 RMK A01 T00681023  RH  052%=      5-min Rain = 0
KCL2 141816Z 15009KT 07/M03 A3036 RMK A01 T00671025  RH  052%=      5-min Rain = 0
KCL2 141817Z 16007KT 07/M02 A3036 RMK A01 T00661024  RH  053%=      5-min Rain = 0
KCL2 141818Z 16008KT 07/M03 A3036 RMK A01 T00671027  RH  051%=      5-min Rain = 0
KCL2 141819Z 14008KT 07/M03 A3036 RMK A01 T00661026  RH  052%=      5-min Rain = 0
KCL2 141820Z 13009KT 07/M03 A3036 RMK A01 T00671028  RH  051%=      5-min Rain = 0
KCL2 141821Z 10009KT 07/M03 A3036 RMK A01 T00671027  RH  051%=      5-min Rain = 0
KCL2 141822Z 13006G13KT 07/M02 A3036 RMK A01 T00671023  RH  053%=      5-min Rain = 0
KCL2 141823Z 14009KT 07/M02 A3035 RMK A01 T00731016  RH  053%=      5-min Rain = 0
KCL2 141824Z 14011KT 08/M02 A3035 RMK A01 T00761023  RH  050%=      5-min Rain = 0
KCL2 141825Z 14009KT 07/M03 A3035 RMK A01 T00721028  RH  049%=      5-min Rain = 0
KCL2 141826Z 14010KT 07/M03 A3035 RMK A01 T00691028  RH  050%=      5-min Rain = 0
KCL2 141827Z 13010KT 07/M02 A3035 RMK A01 T00711024  RH  051%=      5-min Rain = 0
KCL2 141828Z 13010KT 07/M02 A3035 RMK A01 T00711024  RH  051%=      5-min Rain = 0
KCL2 141829Z 13010KT 07/M02 A3035 RMK A01 T00701023  RH  052%=      5-min Rain = 0
KCL2 141830Z 14007KT 07/M02 A3035 RMK A01 T00691019  RH  053%=      5-min Rain = 0
KCL2 141831Z 13009KT 07/M02 A3035 RMK A01 T00721021  RH  052%=      5-min Rain = 0
KCL2 141832Z 12008KT 07/M02 A3034 RMK A01 T00711023  RH  051%=      5-min Rain = 0
KCL2 141833Z 15010KT 07/M03 A3034 RMK A01 T00721025  RH  050%=      5-min Rain = 0
KCL2 141834Z 16011KT 07/M03 A3034 RMK A01 T00741030  RH  048%=      5-min Rain = 0
KCL2 141835Z 16009KT 07/M03 A3034 RMK A01 T00731030  RH  048%=      5-min Rain = 0
KCL2 141836Z 16008KT 07/M03 A3034 RMK A01 T00731027  RH  049%=      5-min Rain = 0
KCL2 141837Z 16007KT 07/M03 A3034 RMK A01 T00711028  RH  049%=      5-min Rain = 0
KCL2 141838Z 15011G17KT 07/M03 A3034 RMK A01 T00701025  RH  051%=      5-min Rain = 0
KCL2 141839Z 14011KT 08/M02 A3034 RMK A01 T00751021  RH  051%=      5-min Rain = 0
KCL2 141840Z 15009KT 08/M03 A3034 RMK A01 T00771025  RH  048%=      5-min Rain = 0
KCL2 141841Z 15009KT 08/M03 A3034 RMK A01 T00761027  RH  048%=      5-min Rain = 0
KCL2 141842Z 14007KT 07/M03 A3034 RMK A01 T00741026  RH  049%=      5-min Rain = 0
KCL2 141843Z 12009KT 08/M02 A3034 RMK A01 T00751024  RH  049%=      5-min Rain = 0
KCL2 141844Z 11007KT 08/M02 A3034 RMK A01 T00751024  RH  049%=      5-min Rain = 0
KCL2 141845Z 13008KT 08/M02 A3034 RMK A01 T00751024  RH  049%=      5-min Rain = 0
KCL2 141846Z 13008KT 08/M03 A3034 RMK A01 T00761025  RH  049%=      5-min Rain = 0
KCL2 141847Z 13008KT 08/M02 A3033 RMK A01 T00781023  RH  049%=      5-min Rain = 0
KCL2 141848Z 16009KT 08/M02 A3033 RMK A01 T00811024  RH  048%=      5-min Rain = 0
KCL2 141849Z 17010KT 08/M02 A3033 RMK A01 T00831022  RH  048%=      5-min Rain = 0
KCL2 141850Z 18008KT 08/M03 A3033 RMK A01 T00821025  RH  047%=      5-min Rain = 0
KCL2 141851Z 14007KT 08/M02 A3033 RMK A01 T00821023  RH  048%=      5-min Rain = 0
KCL2 141852Z 14007KT 08/M03 A3033 RMK A01 T00821025  RH  047%=      5-min Rain = 0
KCL2 141853Z 17010KT 08/M02 A3033 RMK A01 T00821021  RH  048%=      5-min Rain = 0
KCL2 141854Z 16010KT 09/M02 A3033 RMK A01 T00851021  RH  047%=      5-min Rain = 0
KCL2 141855Z 14008KT 09/M02 A3033 RMK A01 T00851023  RH  047%=      5-min Rain = 0
KCL2 141856Z 14007KT 08/M03 A3033 RMK A01 T00841025  RH  046%=      5-min Rain = 0
KCL2 141857Z 16007KT 08/M02 A3033 RMK A01 T00841023  RH  047%=      5-min Rain = 0
KCL2 141858Z 17009KT 08/M03 A3032 RMK A01 T00841025  RH  046%=      5-min Rain = 0
KCL2 141859Z 14007KT 08/M02 A3032 RMK A01 T00831023  RH  047%=      5-min Rain = 0
KCL2 141900Z 12007KT 08/M02 A3033 RMK A01 T00841022  RH  047%=      5-min Rain = 0
KCL2 141901Z 15006KT 08/M02 A3032 RMK A01 T00841022  RH  047%=      5-min Rain = 0
KCL2 141902Z 14006KT 09/M02 A3032 RMK A01 T00861017  RH  048%=      5-min Rain = 0
KCL2 141903Z 13008KT 09/M02 A3032 RMK A01 T00871019  RH  047%=      5-min Rain = 0
KCL2 141904Z 14008KT 09/M02 A3032 RMK A01 T00871024  RH  046%=      5-min Rain = 0
KCL2 141905Z 12008KT 09/M02 A3032 RMK A01 T00861023  RH  046%=      5-min Rain = 0
KCL2 141906Z 12007KT 09/M03 A3032 RMK A01 T00861025  RH  046%=      5-min Rain = 0
KCL2 141907Z 12007KT 09/M02 A3032 RMK A01 T00871019  RH  047%=      5-min Rain = 0
KCL2 141908Z 16010KT 09/M02 A3032 RMK A01 T00901017  RH  047%=      5-min Rain = 0
KCL2 141909Z 16011KT 09/M02 A3032 RMK A01 T00921019  RH  046%=      5-min Rain = 0
KCL2 141910Z 15011KT 09/M02 A3032 RMK A01 T00931023  RH  044%=      5-min Rain = 0
KCL2 141911Z 15009KT 09/M03 A3032 RMK A01 T00891027  RH  044%=      5-min Rain = 0
KCL2 141912Z 16009KT 09/M03 A3032 RMK A01 T00861027  RH  045%=      5-min Rain = 0
KCL2 141913Z 16010KT 09/M02 A3032 RMK A01 T00851024  RH  046%=      5-min Rain = 0
KCL2 141914Z 16008KT 09/M02 A3032 RMK A01 T00851023  RH  047%=      5-min Rain = 0
KCL2 141915Z 13007KT 09/M02 A3032 RMK A01 T00861022  RH  046%=      5-min Rain = 0
KCL2 141916Z 15006G12KT 09/M02 A3032 RMK A01 T00861023  RH  046%=      5-min Rain = 0
KCL2 141917Z 15009KT 09/M02 A3032 RMK A01 T00891019  RH  047%=      5-min Rain = 0
KCL2 141918Z 15010KT 09/M02 A3032 RMK A01 T00941019  RH  045%=      5-min Rain = 0
KCL2 141919Z 16009KT 10/M02 A3032 RMK A01 T00951023  RH  044%=      5-min Rain = 0
KCL2 141920Z 15009KT 09/M02 A3032 RMK A01 T00931022  RH  044%=      5-min Rain = 0
KCL2 141921Z 13008KT 09/M02 A3032 RMK A01 T00931018  RH  046%=      5-min Rain = 0
KCL2 141922Z 15008KT 09/M02 A3032 RMK A01 T00921020  RH  046%=      5-min Rain = 0
KCL2 141923Z 16008KT 09/M02 A3031 RMK A01 T00911021  RH  045%=      5-min Rain = 0
KCL2 141924Z 13009G16KT 09/M02 A3031 RMK A01 T00921016  RH  047%=      5-min Rain = 0
KCL2 141925Z 12012KT 10/M02 A3031 RMK A01 T00951016  RH  046%=      5-min Rain = 0
KCL2 141926Z 13009KT 09/M02 A3031 RMK A01 T00921020  RH  045%=      5-min Rain = 0
KCL2 141927Z 13007KT 09/M02 A3031 RMK A01 T00891021  RH  046%=      5-min Rain = 0
KCL2 141928Z 13005KT 09/M02 A3031 RMK A01 T00871018  RH  048%=      5-min Rain = 0
KCL2 141929Z 15003KT 09/M02 A3031 RMK A01 T00881017  RH  047%=      5-min Rain = 0
KCL2 141930Z 15010KT 09/M02 A3031 RMK A01 T00921016  RH  047%=      5-min Rain = 0
KCL2 141931Z 15009KT 09/M02 A3031 RMK A01 T00931021  RH  045%=      5-min Rain = 0
KCL2 141932Z 15008KT 09/M02 A3031 RMK A01 T00911021  RH  045%=      5-min Rain = 0
KCL2 141933Z 14009KT 09/M02 A3031 RMK A01 T00921018  RH  046%=      5-min Rain = 0
KCL2 141934Z 14010KT 09/M02 A3031 RMK A01 T00931020  RH  045%=      5-min Rain = 0
KCL2 141935Z 14010KT 09/M02 A3031 RMK A01 T00941019  RH  045%=      5-min Rain = 0
KCL2 141936Z 14009KT 10/M01 A3031 RMK A01 T00981013  RH  046%=      5-min Rain = 0
KCL2 141937Z 15010G15KT 10/M02 A3031 RMK A01 T01001015  RH  045%=      5-min Rain = 0
KCL2 141938Z 16011KT 10/M02 A3031 RMK A01 T01011017  RH  044%=      5-min Rain = 0
KCL2 141939Z 14010KT 10/M02 A3031 RMK A01 T00971022  RH  043%=      5-min Rain = 0
KCL2 141940Z 15008KT 09/M02 A3031 RMK A01 T00931022  RH  045%=      5-min Rain = 0
KCL2 141941Z 16011KT 09/M02 A303 RMK A01 T00931020  RH  045%=      5-min Rain = 0
KCL2 141942Z 16011KT 09/M02 A303 RMK A01 T00931021  RH  045%=      5-min Rain = 0
KCL2 141943Z 17012KT 09/M02 A303 RMK A01 T00941019  RH  045%=      5-min Rain = 0
KCL2 141944Z 17011KT 09/M02 A303 RMK A01 T00941021  RH  045%=      5-min Rain = 0
KCL2 141945Z 17010KT 10/M02 A303 RMK A01 T00951019  RH  045%=      5-min Rain = 0
KCL2 141946Z 16008KT 10/M02 A303 RMK A01 T00951019  RH  045%=      5-min Rain = 0
KCL2 141947Z 13009KT 10/M01 A303 RMK A01 T00961014  RH  046%=      5-min Rain = 0
KCL2 141948Z 14010G15KT 10/M02 A303 RMK A01 T00981016  RH  045%=      5-min Rain = 0
KCL2 141949Z 15014KT 10/M02 A303 RMK A01 T00981021  RH  043%=      5-min Rain = 0
KCL2 141950Z 16012KT 10/M02 A303 RMK A01 T00961022  RH  044%=      5-min Rain = 0
KCL2 141951Z 15010KT 10/M02 A303 RMK A01 T00961022  RH  043%=      5-min Rain = 0
KCL2 141952Z 15010KT 10/M02 A303 RMK A01 T00961024  RH  043%=      5-min Rain = 0
KCL2 141953Z 14010KT 10/M03 A303 RMK A01 T00961025  RH  043%=      5-min Rain = 0
KCL2 141954Z 16011KT 10/M02 A303 RMK A01 T00971020  RH  044%=      5-min Rain = 0
KCL2 141955Z 15010KT 10/M02 A303 RMK A01 T00981022  RH  043%=      5-min Rain = 0
KCL2 141956Z 16012KT 10/M02 A303 RMK A01 T00961024  RH  043%=      5-min Rain = 0
KCL2 141957Z 16012KT 09/M02 A303 RMK A01 T00941023  RH  044%=      5-min Rain = 0
KCL2 141958Z 15011KT 10/M02 A3029 RMK A01 T00951022  RH  044%=      5-min Rain = 0
KCL2 141959Z 17011KT 10/M02 A3029 RMK A01 T00951022  RH  044%=      5-min Rain = 0
KCL2 142000Z 17009KT 10/M02 A3029 RMK A01 T00991017  RH  044%=      5-min Rain = 0
KCL2 142001Z 18009KT 10/M02 A3029 RMK A01 T01011018  RH  043%=      5-min Rain = 0
KCL2 142002Z 17012KT 10/M02 A3029 RMK A01 T01021019  RH  043%=      5-min Rain = 0
KCL2 142003Z 17010KT 10/M02 A3029 RMK A01 T01021024  RH  041%=      5-min Rain = 0
KCL2 142004Z 15011KT 10/M02 A3029 RMK A01 T01001022  RH  042%=      5-min Rain = 0
KCL2 142005Z 15010KT 10/M02 A3029 RMK A01 T01021024  RH  041%=      5-min Rain = 0
KCL2 142006Z 17011KT 10/M03 A3029 RMK A01 T01011025  RH  041%=      5-min Rain = 0
KCL2 142007Z 16010KT 10/M02 A3029 RMK A01 T01021022  RH  042%=      5-min Rain = 0
KCL2 142008Z 15012KT 10/M02 A3029 RMK A01 T01021022  RH  042%=      5-min Rain = 0
KCL2 142009Z 15009KT 10/M02 A3029 RMK A01 T01001024  RH  042%=      5-min Rain = 0
KCL2 142010Z 15008KT 10/M03 A3029 RMK A01 T00981026  RH  042%=      5-min Rain = 0
KCL2 142011Z 14009G14KT 10/M02 A3029 RMK A01 T00981023  RH  043%=      5-min Rain = 0
KCL2 142012Z 17012KT 10/M02 A3029 RMK A01 T01031018  RH  043%=      5-min Rain = 0
KCL2 142013Z 17014KT 11/M02 A3028 RMK A01 T01051022  RH  041%=      5-min Rain = 0
KCL2 142014Z 17013KT 11/M02 A3028 RMK A01 T01051022  RH  041%=      5-min Rain = 0
KCL2 142015Z 16010KT 11/M02 A3029 RMK A01 T01051021  RH  041%=      5-min Rain = 0
KCL2 142016Z 15009KT 11/M02 A3028 RMK A01 T01061016  RH  043%=      5-min Rain = 0
KCL2 142017Z 16007KT 11/M02 A3028 RMK A01 T01071015  RH  043%=      5-min Rain = 0
KCL2 142018Z 16009KT 11/M01 A3028 RMK A01 T01111014  RH  042%=      5-min Rain = 0
KCL2 142019Z 16011KT 11/M01 A3028 RMK A01 T01121013  RH  042%=      5-min Rain = 0
KCL2 142020Z 16012KT 11/M02 A3028 RMK A01 T01121021  RH  039%=      5-min Rain = 0
KCL2 142021Z 14014KT 11/M02 A3028 RMK A01 T01081024  RH  039%=      5-min Rain = 0
KCL2 142022Z 16011KT 11/M02 A3028 RMK A01 T01061023  RH  040%=      5-min Rain = 0
KCL2 142023Z 14009KT 11/M02 A3028 RMK A01 T01061020  RH  041%=      5-min Rain = 0
KCL2 142024Z 15010KT 11/M02 A3028 RMK A01 T01071019  RH  041%=      5-min Rain = 0
KCL2 142025Z 16012KT 11/M02 A3028 RMK A01 T01081018  RH  041%=      5-min Rain = 0
KCL2 142026Z 16012KT 11/M02 A3028 RMK A01 T01061018  RH  042%=      5-min Rain = 0
KCL2 142027Z 16013KT 11/M02 A3028 RMK A01 T01051018  RH  042%=      5-min Rain = 0
KCL2 142028Z 16012KT 10/M02 A3028 RMK A01 T01041017  RH  043%=      5-min Rain = 0
KCL2 142029Z 15010KT 10/M02 A3028 RMK A01 T01031016  RH  044%=      5-min Rain = 0
KCL2 142030Z 16010KT 10/M01 A3028 RMK A01 T01041014  RH  044%=      5-min Rain = 0
KCL2 142031Z 17008KT 11/M02 A3028 RMK A01 T01071016  RH  042%=      5-min Rain = 0
KCL2 142032Z 16011KT 11/M02 A3028 RMK A01 T01071017  RH  042%=      5-min Rain = 0
KCL2 142033Z 15012KT 11/M02 A3028 RMK A01 T01071017  RH  042%=      5-min Rain = 0
KCL2 142034Z 16014KT 11/M02 A3028 RMK A01 T01071017  RH  042%=      5-min Rain = 0
KCL2 142035Z 15015KT 11/M02 A3028 RMK A01 T01061018  RH  042%=      5-min Rain = 0
KCL2 142036Z 16011KT 11/M02 A3028 RMK A01 T01051018  RH  042%=      5-min Rain = 0
KCL2 142037Z 16010KT 10/M02 A3028 RMK A01 T01041018  RH  042%=      5-min Rain = 0
KCL2 142038Z 17010KT 11/M02 A3028 RMK A01 T01061015  RH  043%=      5-min Rain = 0
KCL2 142039Z 16010KT 11/M02 A3028 RMK A01 T01081015  RH  042%=      5-min Rain = 0
KCL2 142040Z 17011KT 11/M02 A3027 RMK A01 T01091016  RH  042%=      5-min Rain = 0
KCL2 142041Z 16009KT 11/M02 A3028 RMK A01 T01091015  RH  042%=      5-min Rain = 0
KCL2 142042Z 16010KT 11/M01 A3028 RMK A01 T01101013  RH  042%=      5-min Rain = 0
KCL2 142043Z 16009G14KT 11/M01 A3027 RMK A01 T01101014  RH  042%=      5-min Rain = 0
KCL2 142044Z 14013KT 11/M02 A3027 RMK A01 T01081017  RH  042%=      5-min Rain = 0
KCL2 142045Z 14011KT 11/M02 A3027 RMK A01 T01061017  RH  042%=      5-min Rain = 0
KCL2 142046Z 14012KT 11/M02 A3027 RMK A01 T01061017  RH  042%=      5-min Rain = 0
KCL2 142047Z 16011KT 11/M02 A3027 RMK A01 T01061015  RH  043%=      5-min Rain = 0
KCL2 142048Z 17012KT 11/M02 A3027 RMK A01 T01081015  RH  042%=      5-min Rain = 0
KCL2 142049Z 19009KT 11/M01 A3027 RMK A01 T01091014  RH  042%=      5-min Rain = 0
KCL2 142050Z 17011KT 11/M01 A3027 RMK A01 T01121012  RH  042%=      5-min Rain = 0
KCL2 142051Z 16012KT 11/M01 A3027 RMK A01 T01121012  RH  042%=      5-min Rain = 0
KCL2 142052Z 16010KT 11/M02 A3027 RMK A01 T01101015  RH  042%=      5-min Rain = 0
KCL2 142053Z 17010KT 11/M02 A3027 RMK A01 T01071017  RH  042%=      5-min Rain = 0
KCL2 142054Z 17009KT 11/M02 A3027 RMK A01 T01061017  RH  042%=      5-min Rain = 0
KCL2 142055Z 17007KT 11/M02 A3027 RMK A01 T01071015  RH  043%=      5-min Rain = 0
KCL2 142056Z 16011KT 11/M01 A3027 RMK A01 T01101010  RH  043%=      5-min Rain = 0
KCL2 142057Z 19012KT 11/M01 A3027 RMK A01 T01131009  RH  043%=      5-min Rain = 0
KCL2 142058Z 18012KT 11/M01 A3027 RMK A01 T01131014  RH  041%=      5-min Rain = 0
KCL2 142059Z 19010G15KT 11/M01 A3027 RMK A01 T01111013  RH  042%=      5-min Rain = 0
KCL2 142100Z 15011KT 11/M01 A3027 RMK A01 T01121010  RH  043%=      5-min Rain = 0
KCL2 142101Z 14013KT 11/M01 A3027 RMK A01 T01141008  RH  043%=      5-min Rain = 0
KCL2 142102Z 14010KT 11/M01 A3027 RMK A01 T01131013  RH  041%=      5-min Rain = 0
KCL2 142103Z 15009KT 11/M01 A3027 RMK A01 T01111013  RH  042%=      5-min Rain = 0
KCL2 142104Z 15009KT 11/M01 A3027 RMK A01 T01091014  RH  042%=      5-min Rain = 0
KCL2 142105Z 15010KT 11/M01 A3026 RMK A01 T01091012  RH  043%=      5-min Rain = 0
KCL2 142106Z 15010KT 11/M01 A3026 RMK A01 T01111008  RH  044%=      5-min Rain = 0
KCL2 142107Z 15011KT 11/M01 A3026 RMK A01 T01131009  RH  043%=      5-min Rain = 0
KCL2 142108Z 14011KT 11/M01 A3026 RMK A01 T01131009  RH  043%=      5-min Rain = 0
KCL2 142109Z 14013KT 11/M01 A3026 RMK A01 T01131012  RH  042%=      5-min Rain = 0
KCL2 142110Z 15013KT 11/M01 A3026 RMK A01 T01111012  RH  042%=      5-min Rain = 0
KCL2 142111Z 16013KT 11/M01 A3026 RMK A01 T01101012  RH  043%=      5-min Rain = 0
KCL2 142112Z 18012KT 11/M01 A3026 RMK A01 T01101011  RH  043%=      5-min Rain = 0
KCL2 142113Z 18009KT 11/M01 A3026 RMK A01 T01111011  RH  043%=      5-min Rain = 0
KCL2 142114Z 18012KT 11/M01 A3026 RMK A01 T01131011  RH  042%=      5-min Rain = 0
KCL2 142115Z 18010KT 11/M01 A3026 RMK A01 T01141013  RH  041%=      5-min Rain = 0
KCL2 142116Z 18008KT 11/M01 A3026 RMK A01 T01141014  RH  041%=      5-min Rain = 0
KCL2 142117Z 16008KT 11/M01 A3026 RMK A01 T01141009  RH  042%=      5-min Rain = 0
KCL2 142118Z 13010KT 12/M01 A3026 RMK A01 T01151012  RH  041%=      5-min Rain = 0
KCL2 142119Z 16009KT 11/M01 A3026 RMK A01 T01131012  RH  042%=      5-min Rain = 0
KCL2 142120Z 17011KT 11/M01 A3026 RMK A01 T01141011  RH  042%=      5-min Rain = 0
KCL2 142121Z 17013KT 12/M01 A3025 RMK A01 T01151014  RH  041%=      5-min Rain = 0
KCL2 142122Z 17009KT 11/M01 A3026 RMK A01 T01141014  RH  041%=      5-min Rain = 0
KCL2 142123Z 17009KT 12/M01 A3026 RMK A01 T01171011  RH  041%=      5-min Rain = 0
KCL2 142124Z 17011KT 12/M01 A3026 RMK A01 T01201012  RH  040%=      5-min Rain = 0
KCL2 142125Z 18008KT 12/M02 A3025 RMK A01 T01171015  RH  040%=      5-min Rain = 0
KCL2 142126Z 17009KT 12/M01 A3025 RMK A01 T01181012  RH  040%=      5-min Rain = 0
KCL2 142127Z 16010KT 12/M01 A3025 RMK A01 T01191013  RH  040%=      5-min Rain = 0
KCL2 142128Z 14008KT 12/M01 A3025 RMK A01 T01171013  RH  041%=      5-min Rain = 0
KCL2 142129Z 14008KT 12/M01 A3025 RMK A01 T01161011  RH  041%=      5-min Rain = 0
KCL2 142130Z 16013G18KT 12/M01 A3025 RMK A01 T01151011  RH  042%=      5-min Rain = 0
KCL2 142131Z 16015KT 12/M01 A3025 RMK A01 T01161011  RH  041%=      5-min Rain = 0
KCL2 142132Z 16012KT 12/M01 A3025 RMK A01 T01151010  RH  042%=      5-min Rain = 0
KCL2 142133Z 17010KT 12/M01 A3025 RMK A01 T01151011  RH  042%=      5-min Rain = 0
KCL2 142134Z 16010KT 11/M01 A3025 RMK A01 T01141013  RH  041%=      5-min Rain = 0
KCL2 142135Z 17011G16KT 11/M01 A3025 RMK A01 T01141012  RH  042%=      5-min Rain = 0
KCL2 142136Z 17015KT 12/M01 A3025 RMK A01 T01151011  RH  042%=      5-min Rain = 0
KCL2 142137Z 17012KT 12/M01 A3025 RMK A01 T01161012  RH  041%=      5-min Rain = 0
KCL2 142138Z 17011KT 11/M02 A3025 RMK A01 T01141015  RH  041%=      5-min Rain = 0
KCL2 142139Z 17011KT 11/M01 A3025 RMK A01 T01131012  RH  042%=      5-min Rain = 0
KCL2 142140Z 16012KT 11/M01 A3025 RMK A01 T01141010  RH  042%=      5-min Rain = 0
KCL2 142141Z 16013KT 12/M01 A3025 RMK A01 T01151011  RH  042%=      5-min Rain = 0
KCL2 142142Z 15009G15KT 11/M01 A3025 RMK A01 T01141011  RH  042%=      5-min Rain = 0
KCL2 142143Z 15009KT 12/M01 A3025 RMK A01 T01151008  RH  043%=      5-min Rain = 0
KCL2 142144Z 15010KT 12/M01 A3025 RMK A01 T01161006  RH  043%=      5-min Rain = 0
KCL2 142145Z 18011KT 12/M01 A3025 RMK A01 T01181008  RH  042%=      5-min Rain = 0
KCL2 142146Z 19013KT 12/M01 A3025 RMK A01 T01171011  RH  041%=      5-min Rain = 0
KCL2 142147Z 18011KT 12/M01 A3025 RMK A01 T01171011  RH  041%=      5-min Rain = 0
KCL2 142148Z 17009KT 12/M01 A3025 RMK A01 T01161012  RH  041%=      5-min Rain = 0
KCL2 142149Z 15011KT 12/M01 A3025 RMK A01 T01151011  RH  042%=      5-min Rain = 0
KCL2 142150Z 15011KT 11/M01 A3025 RMK A01 T01131011  RH  042%=      5-min Rain = 0
KCL2 142151Z 16011KT 11/M01 A3025 RMK A01 T01131009  RH  043%=      5-min Rain = 0
KCL2 142152Z 16008KT 11/M01 A3025 RMK A01 T01141008  RH  043%=      5-min Rain = 0
KCL2 142153Z 14008KT 12/M01 A3025 RMK A01 T01151009  RH  042%=      5-min Rain = 0
KCL2 142154Z 15010KT 12/M01 A3025 RMK A01 T01161007  RH  043%=      5-min Rain = 0
KCL2 142155Z 15009KT 12/M01 A3025 RMK A01 T01161008  RH  042%=      5-min Rain = 0
KCL2 142156Z 15009KT 12/M01 A3024 RMK A01 T01161008  RH  042%=      5-min Rain = 0
KCL2 142157Z 15010KT 12/M01 A3024 RMK A01 T01161008  RH  042%=      5-min Rain = 0
KCL2 142158Z 15010KT 12/M01 A3024 RMK A01 T01181005  RH  043%=      5-min Rain = 0
KCL2 142159Z 16010KT 12/M01 A3024 RMK A01 T01191007  RH  042%=      5-min Rain = 0
KCL2 142200Z 19014KT 12/M01 A3024 RMK A01 T01191008  RH  041%=      5-min Rain = 0
KCL2 142201Z 18009KT 12/M01 A3025 RMK A01 T01191009  RH  041%=      5-min Rain = 0
KCL2 142202Z 17007KT 12/M01 A3024 RMK A01 T01191008  RH  041%=      5-min Rain = 0
KCL2 142203Z 17010KT 12/M01 A3024 RMK A01 T01191008  RH  041%=      5-min Rain = 0
KCL2 142204Z 16013KT 12/M01 A3025 RMK A01 T01201010  RH  041%=      5-min Rain = 0
KCL2 142205Z 18009KT 12/M01 A3024 RMK A01 T01181009  RH  041%=      5-min Rain = 0
KCL2 142206Z 18009KT 12/M01 A3024 RMK A01 T01191010  RH  041%=      5-min Rain = 0
KCL2 142207Z 18008KT 12/M01 A3024 RMK A01 T01191010  RH  041%=      5-min Rain = 0
KCL2 142208Z 17012KT 12/M01 A3024 RMK A01 T01191008  RH  041%=      5-min Rain = 0
KCL2 142209Z 17014KT 12/M01 A3024 RMK A01 T01181009  RH  041%=      5-min Rain = 0
KCL2 142210Z 16012KT 12/M01 A3024 RMK A01 T01161011  RH  041%=      5-min Rain = 0
KCL2 142211Z 16012KT 12/M01 A3024 RMK A01 T01151010  RH  042%=      5-min Rain = 0
KCL2 142212Z 17013KT 12/M01 A3024 RMK A01 T01151009  RH  042%=      5-min Rain = 0
KCL2 142213Z 16012KT 12/M01 A3024 RMK A01 T01171011  RH  041%=      5-min Rain = 0
KCL2 142214Z 16012KT 12/M01 A3024 RMK A01 T01161011  RH  041%=      5-min Rain = 0
KCL2 142215Z 16015KT 12/M01 A3024 RMK A01 T01161011  RH  041%=      5-min Rain = 0
KCL2 142216Z 15015KT 12/M01 A3024 RMK A01 T01161010  RH  041%=      5-min Rain = 0
KCL2 142217Z 16012KT 12/M01 A3024 RMK A01 T01161012  RH  041%=      5-min Rain = 0
KCL2 142218Z 16014KT 12/M01 A3024 RMK A01 T01171011  RH  041%=      5-min Rain = 0
KCL2 142219Z 18013KT 12/M01 A3024 RMK A01 T01171011  RH  041%=      5-min Rain = 0
KCL2 142220Z 18011KT 12/M01 A3024 RMK A01 T01161011  RH  041%=      5-min Rain = 0
KCL2 142221Z 18010KT 12/M01 A3024 RMK A01 T01151012  RH  041%=      5-min Rain = 0
KCL2 142222Z 18011KT 12/M01 A3024 RMK A01 T01171009  RH  042%=      5-min Rain = 0
KCL2 142223Z 18012KT 12/M01 A3024 RMK A01 T01201009  RH  041%=      5-min Rain = 0
KCL2 142224Z 18012KT 12/M01 A3024 RMK A01 T01201009  RH  041%=      5-min Rain = 0
KCL2 142225Z 19013KT 12/M01 A3024 RMK A01 T01211010  RH  040%=      5-min Rain = 0
KCL2 142226Z 18010KT 12/M01 A3024 RMK A01 T01191013  RH  040%=      5-min Rain = 0
KCL2 142227Z 18012KT 12/M01 A3024 RMK A01 T01181011  RH  041%=      5-min Rain = 0
KCL2 142228Z 17012KT 12/M01 A3024 RMK A01 T01181012  RH  041%=      5-min Rain = 0
KCL2 142229Z 17013KT 12/M01 A3024 RMK A01 T01171011  RH  041%=      5-min Rain = 0
KCL2 142230Z 17012KT 12/M01 A3024 RMK A01 T01181013  RH  040%=      5-min Rain = 0
KCL2 142231Z 16011KT 12/M01 A3024 RMK A01 T01181012  RH  041%=      5-min Rain = 0
KCL2 142232Z 17011KT 12/M01 A3024 RMK A01 T01171013  RH  041%=      5-min Rain = 0
KCL2 142233Z 17009KT 12/M01 A3024 RMK A01 T01161012  RH  041%=      5-min Rain = 0
KCL2 142234Z 16011KT 12/M01 A3024 RMK A01 T01161012  RH  041%=      5-min Rain = 0
KCL2 142235Z 18011KT 12/M01 A3024 RMK A01 T01171010  RH  041%=      5-min Rain = 0
KCL2 142236Z 18012KT 12/M01 A3024 RMK A01 T01181010  RH  041%=      5-min Rain = 0
KCL2 142237Z 18009KT 12/M01 A3024 RMK A01 T01181009  RH  042%=      5-min Rain = 0
KCL2 142238Z 18012KT 12/M01 A3024 RMK A01 T01181008  RH  042%=      5-min Rain = 0
KCL2 142239Z 18014KT 12/M01 A3024 RMK A01 T01191010  RH  041%=      5-min Rain = 0
KCL2 142240Z 17013KT 12/M01 A3024 RMK A01 T01171013  RH  040%=      5-min Rain = 0
KCL2 142241Z 16009KT 12/M01 A3024 RMK A01 T01161011  RH  041%=      5-min Rain = 0
KCL2 142242Z 17008KT 12/M01 A3024 RMK A01 T01171009  RH  042%=      5-min Rain = 0
KCL2 142243Z 18014G19KT 12/M01 A3024 RMK A01 T01191011  RH  041%=      5-min Rain = 0
KCL2 142244Z 18013KT 12/M01 A3024 RMK A01 T01181013  RH  040%=      5-min Rain = 0
KCL2 142245Z 19013KT 12/M02 A3024 RMK A01 T01161015  RH  040%=      5-min Rain = 0
KCL2 142246Z 16013KT 12/M01 A3024 RMK A01 T01151014  RH  041%=      5-min Rain = 0
KCL2 142247Z 16012KT 12/M01 A3024 RMK A01 T01151013  RH  041%=      5-min Rain = 0
KCL2 142248Z 16013KT 12/M01 A3024 RMK A01 T01151013  RH  041%=      5-min Rain = 0
KCL2 142249Z 17012KT 12/M01 A3024 RMK A01 T01151013  RH  041%=      5-min Rain = 0
KCL2 142250Z 16010KT 12/M01 A3024 RMK A01 T01151012  RH  041%=      5-min Rain = 0
KCL2 142251Z 16012KT 12/M01 A3024 RMK A01 T01161010  RH  042%=      5-min Rain = 0
KCL2 142252Z 16013KT 12/M01 A3024 RMK A01 T01161010  RH  042%=      5-min Rain = 0
KCL2 142253Z 16014KT 12/M01 A3024 RMK A01 T01161009  RH  042%=      5-min Rain = 0
KCL2 142254Z 17011KT 12/M01 A3024 RMK A01 T01161008  RH  042%=      5-min Rain = 0
KCL2 142255Z 17012KT 12/M01 A3024 RMK A01 T01171008  RH  042%=      5-min Rain = 0
KCL2 142256Z 17014KT 12/M01 A3024 RMK A01 T01161010  RH  042%=      5-min Rain = 0
KCL2 142257Z 17011KT 11/M01 A3024 RMK A01 T01141011  RH  042%=      5-min Rain = 0
KCL2 142258Z 17012KT 11/M01 A3024 RMK A01 T01141009  RH  043%=      5-min Rain = 0
KCL2 142259Z 19013KT 11/M01 A3024 RMK A01 T01141009  RH  042%=      5-min Rain = 0
KCL2 142300Z 18012KT 11/M01 A3024 RMK A01 T01141011  RH  042%=      5-min Rain = 0
KCL2 142301Z 17010KT 11/M01 A3023 RMK A01 T01131010  RH  042%=      5-min Rain = 0
KCL2 142302Z 17011KT 11/M01 A3023 RMK A01 T01141009  RH  043%=      5-min Rain = 0
KCL2 142303Z 16013G18KT 11/M01 A3023 RMK A01 T01141009  RH  042%=      5-min Rain = 0
KCL2 142304Z 17011KT 11/M01 A3023 RMK A01 T01141010  RH  042%=      5-min Rain = 0
KCL2 142305Z 19010KT 11/M01 A3023 RMK A01 T01141009  RH  042%=      5-min Rain = 0
KCL2 142306Z 18012KT 11/M01 A3023 RMK A01 T01141009  RH  043%=      5-min Rain = 0
KCL2 142307Z 18011G17KT 11/M01 A3023 RMK A01 T01141009  RH  042%=      5-min Rain = 0
KCL2 142308Z 18014KT 11/M01 A3023 RMK A01 T01131009  RH  043%=      5-min Rain = 0
KCL2 142309Z 17011KT 11/M01 A3023 RMK A01 T01131010  RH  043%=      5-min Rain = 0
KCL2 142310Z 17014KT 11/M01 A3023 RMK A01 T01121009  RH  043%=      5-min Rain = 0
KCL2 142311Z 17015KT 11/M01 A3024 RMK A01 T01121010  RH  043%=      5-min Rain = 0
KCL2 142312Z 17013KT 11/M01 A3024 RMK A01 T01121009  RH  043%=      5-min Rain = 0
KCL2 142313Z 17012KT 11/M01 A3024 RMK A01 T01111010  RH  043%=      5-min Rain = 0
KCL2 142314Z 18009KT 11/M01 A3024 RMK A01 T01111008  RH  044%=      5-min Rain = 0
KCL2 142315Z 17009KT 11/M01 A3024 RMK A01 T01121007  RH  044%=      5-min Rain = 0
KCL2 142316Z 17008KT 11/M01 A3024 RMK A01 T01131006  RH  044%=      5-min Rain = 0
KCL2 142317Z 16008KT 11/M01 A3024 RMK A01 T01131006  RH  044%=      5-min Rain = 0
KCL2 142318Z 17008KT 11/M01 A3024 RMK A01 T01141006  RH  044%=      5-min Rain = 0
KCL2 142319Z 18010KT 11/M01 A3024 RMK A01 T01141007  RH  043%=      5-min Rain = 0
KCL2 142320Z 17011KT 11/M01 A3024 RMK A01 T01141008  RH  043%=      5-min Rain = 0
KCL2 142321Z 15011KT 11/M01 A3024 RMK A01 T01131007  RH  043%=      5-min Rain = 0
KCL2 142322Z 15010KT 11/M01 A3024 RMK A01 T01131007  RH  044%=      5-min Rain = 0
KCL2 142323Z 15009KT 11/M01 A3024 RMK A01 T01131007  RH  044%=      5-min Rain = 0
KCL2 142324Z 16010G15KT 11/M01 A3024 RMK A01 T01121006  RH  044%=      5-min Rain = 0
KCL2 142325Z 15013KT 11/M01 A3024 RMK A01 T01121006  RH  044%=      5-min Rain = 0
KCL2 142326Z 16011KT 11/M01 A3024 RMK A01 T01111007  RH  044%=      5-min Rain = 0
KCL2 142327Z 16011KT 11/M01 A3024 RMK A01 T01111006  RH  044%=      5-min Rain = 0
KCL2 142328Z 17009KT 11/M01 A3024 RMK A01 T01111006  RH  044%=      5-min Rain = 0
KCL2 142329Z 17009KT 11/M01 A3024 RMK A01 T01101007  RH  044%=      5-min Rain = 0
KCL2 142330Z 17009KT 11/M01 A3024 RMK A01 T01101005  RH  045%=      5-min Rain = 0
KCL2 142331Z 16010KT 11/M01 A3024 RMK A01 T01101006  RH  044%=      5-min Rain = 0
KCL2 142332Z 17009KT 11/M01 A3024 RMK A01 T01111006  RH  044%=      5-min Rain = 0
KCL2 142333Z 17013KT 11/M01 A3024 RMK A01 T01111007  RH  044%=      5-min Rain = 0
KCL2 142334Z 17012KT 11/M01 A3024 RMK A01 T01101009  RH  044%=      5-min Rain = 0
KCL2 142335Z 17011KT 11/M01 A3024 RMK A01 T01091010  RH  044%=      5-min Rain = 0
KCL2 142336Z 17010KT 11/M01 A3024 RMK A01 T01091010  RH  044%=      5-min Rain = 0
KCL2 142337Z 17010KT 11/M01 A3024 RMK A01 T01091009  RH  044%=      5-min Rain = 0
KCL2 142338Z 17014KT 11/M01 A3024 RMK A01 T01091009  RH  044%=      5-min Rain = 0
KCL2 142339Z 18012KT 11/M01 A3024 RMK A01 T01081010  RH  044%=      5-min Rain = 0
KCL2 142340Z 17012KT 11/M01 A3023 RMK A01 T01071009  RH  044%=      5-min Rain = 0
KCL2 142341Z 17012KT 11/M01 A3023 RMK A01 T01081009  RH  044%=      5-min Rain = 0
KCL2 142342Z 17014KT 11/M01 A3023 RMK A01 T01071009  RH  044%=      5-min Rain = 0
KCL2 142343Z 17012KT 11/M01 A3023 RMK A01 T01071009  RH  045%=      5-min Rain = 0
KCL2 142344Z 17013KT 11/M01 A3023 RMK A01 T01071009  RH  045%=      5-min Rain = 0
KCL2 142345Z 17011KT 11/M01 A3023 RMK A01 T01061009  RH  045%=      5-min Rain = 0
KCL2 142346Z 17009KT 11/M01 A3023 RMK A01 T01061009  RH  045%=      5-min Rain = 0
KCL2 142347Z 17010KT 11/M01 A3023 RMK A01 T01061008  RH  045%=      5-min Rain = 0
KCL2 142348Z 17010KT 11/M01 A3023 RMK A01 T01051008  RH  045%=      5-min Rain = 0
KCL2 142349Z 17010KT 11/M01 A3023 RMK A01 T01051008  RH  045%=      5-min Rain = 0
KCL2 142350Z 17010KT 10/M01 A3023 RMK A01 T01041008  RH  046%=      5-min Rain = 0
KCL2 142351Z 16008KT 10/M01 A3023 RMK A01 T01041007  RH  046%=      5-min Rain = 0
KCL2 142352Z 17009KT 10/M01 A3023 RMK A01 T01041008  RH  046%=      5-min Rain = 0
KCL2 142353Z 17010KT 10/M01 A3023 RMK A01 T01031007  RH  046%=      5-min Rain = 0
KCL2 142354Z 17010KT 10/M01 A3023 RMK A01 T01031007  RH  046%=      5-min Rain = 0
KCL2 142355Z 18008KT 10/M01 A3023 RMK A01 T01031007  RH  046%=      5-min Rain = 0
KCL2 142356Z 17007KT 10/M01 A3023 RMK A01 T01021007  RH  047%=      5-min Rain = 0
KCL2 142357Z 17008KT 10/M01 A3023 RMK A01 T01011007  RH  047%=      5-min Rain = 0
KCL2 142358Z 17007KT 10/M01 A3023 RMK A01 T01011006  RH  047%=      5-min Rain = 0
KCL2 142359Z 16008KT 10/M01 A3023 RMK A01 T01001005  RH  048%=      5-min Rain = 0
KCL2 150000Z 16008KT 10/M01 A3023 RMK A01 T01001005  RH  048%=      5-min Rain = 0
KCL2 150001Z 16010KT 10/M01 A3023 RMK A01 T01001005  RH  048%=      5-min Rain = 0
KCL2 150002Z 16011KT 10/M01 A3023 RMK A01 T01001006  RH  048%=      5-min Rain = 0
KCL2 150003Z 17010KT 10/M01 A3023 RMK A01 T01001007  RH  047%=      5-min Rain = 0
KCL2 150004Z 16009KT 10/M01 A3023 RMK A01 T01011006  RH  048%=      5-min Rain = 0
KCL2 150005Z 15007KT 10/M01 A3023 RMK A01 T01001006  RH  048%=      5-min Rain = 0
KCL2 150006Z 15010KT 10/M01 A3023 RMK A01 T01001006  RH  048%=      5-min Rain = 0
KCL2 150007Z 16008KT 10/M01 A3023 RMK A01 T01001006  RH  048%=      5-min Rain = 0
KCL2 150008Z 16007KT 10/M01 A3023 RMK A01 T00991006  RH  048%=      5-min Rain = 0
KCL2 150009Z 16008KT 10/M01 A3023 RMK A01 T00991006  RH  048%=      5-min Rain = 0
KCL2 150010Z 15007KT 10/M01 A3023 RMK A01 T00981005  RH  049%=      5-min Rain = 0
KCL2 150011Z 16007KT 10/M01 A3023 RMK A01 T00981005  RH  049%=      5-min Rain = 0
KCL2 150012Z 16008KT 10/M01 A3023 RMK A01 T00971005  RH  049%=      5-min Rain = 0
KCL2 150013Z 15008KT 10/M01 A3023 RMK A01 T00961005  RH  049%=      5-min Rain = 0
KCL2 150014Z 15008KT 10/M01 A3023 RMK A01 T00961006  RH  049%=      5-min Rain = 0
KCL2 150015Z 16006KT 10/M01 A3023 RMK A01 T00961005  RH  049%=      5-min Rain = 0
KCL2 150016Z 15007KT 10/M00 A3023 RMK A01 T00961004  RH  050%=      5-min Rain = 0
KCL2 150017Z 15007KT 10/M01 A3023 RMK A01 T00951005  RH  050%=      5-min Rain = 0
KCL2 150018Z 15007KT 10/M01 A3023 RMK A01 T00951006  RH  050%=      5-min Rain = 0
KCL2 150019Z 15006KT 09/M01 A3023 RMK A01 T00941006  RH  050%=      5-min Rain = 0
KCL2 150020Z 15008KT 09/M01 A3023 RMK A01 T00941006  RH  050%=      5-min Rain = 0
KCL2 150021Z 16007KT 09/M01 A3023 RMK A01 T00941006  RH  050%=      5-min Rain = 0
KCL2 150022Z 15006KT 09/M01 A3023 RMK A01 T00941005  RH  050%=      5-min Rain = 0
KCL2 150023Z 15006KT 09/M01 A3023 RMK A01 T00921005  RH  050%=      5-min Rain = 0
KCL2 150024Z 15007KT 09/M01 A3023 RMK A01 T00921005  RH  051%=      5-min Rain = 0
KCL2 150025Z 15006KT 09/M01 A3023 RMK A01 T00921005  RH  051%=      5-min Rain = 0
KCL2 150026Z 15006KT 09/M01 A3023 RMK A01 T00911005  RH  051%=      5-min Rain = 0
KCL2 150027Z 15008KT 09/M01 A3023 RMK A01 T00911005  RH  051%=      5-min Rain = 0
KCL2 150028Z 15007KT 09/M01 A3023 RMK A01 T00901005  RH  051%=      5-min Rain = 0
KCL2 150029Z 15006KT 09/M01 A3023 RMK A01 T00901005  RH  051%=      5-min Rain = 0
KCL2 150030Z 15007KT 09/M01 A3023 RMK A01 T00891005  RH  052%=      5-min Rain = 0
KCL2 150031Z 15006KT 09/M01 A3023 RMK A01 T00881005  RH  052%=      5-min Rain = 0
KCL2 150032Z 15007KT 09/M01 A3023 RMK A01 T00891005  RH  052%=      5-min Rain = 0
KCL2 150033Z 15006KT 09/M01 A3023 RMK A01 T00891005  RH  052%=      5-min Rain = 0
KCL2 150034Z 15006KT 09/M01 A3023 RMK A01 T00881005  RH  052%=      5-min Rain = 0
KCL2 150035Z 15006KT 09/M01 A3023 RMK A01 T00881005  RH  052%=      5-min Rain = 0
KCL2 150036Z 15006KT 09/M01 A3023 RMK A01 T00881005  RH  052%=      5-min Rain = 0
KCL2 150037Z 15006KT 09/M01 A3023 RMK A01 T00871005  RH  052%=      5-min Rain = 0
KCL2 150038Z 14007KT 09/M00 A3023 RMK A01 T00871004  RH  053%=      5-min Rain = 0
KCL2 150039Z 15007KT 09/M00 A3022 RMK A01 T00861004  RH  053%=      5-min Rain = 0
KCL2 150040Z 15008KT 09/M00 A3022 RMK A01 T00861004  RH  053%=      5-min Rain = 0
KCL2 150041Z 15007KT 09/M01 A3022 RMK A01 T00861005  RH  053%=      5-min Rain = 0
KCL2 150042Z 14008KT 09/M01 A3022 RMK A01 T00861005  RH  053%=      5-min Rain = 0
KCL2 150043Z 15006KT 09/M00 A3022 RMK A01 T00861004  RH  053%=      5-min Rain = 0
KCL2 150044Z 15008KT 09/M00 A3022 RMK A01 T00851004  RH  053%=      5-min Rain = 0
KCL2 150045Z 15007KT 08/M01 A3022 RMK A01 T00841005  RH  053%=      5-min Rain = 0
KCL2 150046Z 15008KT 08/M00 A3022 RMK A01 T00841004  RH  054%=      5-min Rain = 0
KCL2 150047Z 15009KT 08/M00 A3022 RMK A01 T00841004  RH  054%=      5-min Rain = 0
KCL2 150048Z 15008KT 09/M00 A3022 RMK A01 T00851004  RH  053%=      5-min Rain = 0
KCL2 150049Z 15009KT 09/M00 A3022 RMK A01 T00851004  RH  053%=      5-min Rain = 0
KCL2 150050Z 15008KT 09/M00 A3022 RMK A01 T00851004  RH  053%=      5-min Rain = 0
KCL2 150051Z 14008KT 09/M00 A3022 RMK A01 T00851003  RH  054%=      5-min Rain = 0
KCL2 150052Z 15007KT 09/M00 A3022 RMK A01 T00851003  RH  054%=      5-min Rain = 0
KCL2 150053Z 14007KT 08/M00 A3022 RMK A01 T00841004  RH  054%=      5-min Rain = 0
KCL2 150054Z 14006KT 08/M00 A3022 RMK A01 T00841003  RH  054%=      5-min Rain = 0
KCL2 150055Z 14007KT 08/M00 A3022 RMK A01 T00831003  RH  054%=      5-min Rain = 0
KCL2 150056Z 15007KT 08/M00 A3022 RMK A01 T00821003  RH  055%=      5-min Rain = 0
KCL2 150057Z 14007KT 08/M00 A3022 RMK A01 T00821003  RH  055%=      5-min Rain = 0
KCL2 150058Z 14007KT 08/M00 A3022 RMK A01 T00811004  RH  055%=      5-min Rain = 0
KCL2 150059Z 14007KT 08/M00 A3022 RMK A01 T00811004  RH  055%=      5-min Rain = 0
KCL2 150100Z 14007KT 08/M00 A3022 RMK A01 T00811004  RH  055%=      5-min Rain = 0
KCL2 150101Z 14007KT 08/M00 A3022 RMK A01 T00801004  RH  056%=      5-min Rain = 0
KCL2 150102Z 14006KT 08/M00 A3022 RMK A01 T00791004  RH  056%=      5-min Rain = 0
KCL2 150103Z 14007KT 08/M00 A3022 RMK A01 T00791004  RH  056%=      5-min Rain = 0
KCL2 150104Z 14007KT 08/M00 A3022 RMK A01 T00791004  RH  056%=      5-min Rain = 0
KCL2 150105Z 14008KT 08/M00 A3022 RMK A01 T00791004  RH  056%=      5-min Rain = 0
KCL2 150106Z 14007KT 08/M00 A3022 RMK A01 T00791004  RH  056%=      5-min Rain = 0
KCL2 150107Z 14007KT 08/M00 A3022 RMK A01 T00791003  RH  056%=      5-min Rain = 0
KCL2 150108Z 14008KT 08/M00 A3022 RMK A01 T00791004  RH  056%=      5-min Rain = 0
KCL2 150109Z 14007KT 08/M00 A3022 RMK A01 T00791003  RH  056%=      5-min Rain = 0
KCL2 150110Z 14007KT 08/M00 A3022 RMK A01 T00791003  RH  056%=      5-min Rain = 0
KCL2 150111Z 13008KT 08/M00 A3022 RMK A01 T00801003  RH  056%=      5-min Rain = 0
KCL2 150112Z 14007KT 08/M00 A3022 RMK A01 T00791004  RH  056%=      5-min Rain = 0
KCL2 150113Z 13007KT 08/M00 A3022 RMK A01 T00791004  RH  056%=      5-min Rain = 0
KCL2 150114Z 13007KT 08/M00 A3022 RMK A01 T00781004  RH  056%=      5-min Rain = 0
KCL2 150115Z 13008KT 08/M00 A3022 RMK A01 T00771004  RH  056%=      5-min Rain = 0
KCL2 150116Z 13007KT 08/M00 A3022 RMK A01 T00771004  RH  056%=      5-min Rain = 0
KCL2 150117Z 14007KT 08/M00 A3022 RMK A01 T00771004  RH  056%=      5-min Rain = 0
KCL2 150118Z 13007KT 08/M00 A3022 RMK A01 T00771004  RH  056%=      5-min Rain = 0
KCL2 150119Z 13007KT 08/M00 A3022 RMK A01 T00771004  RH  056%=      5-min Rain = 0
KCL2 150120Z 13007KT 08/M00 A3022 RMK A01 T00761004  RH  057%=      5-min Rain = 0
KCL2 150121Z 13007KT 08/M00 A3022 RMK A01 T00761004  RH  057%=      5-min Rain = 0
KCL2 150122Z 13007KT 08/M00 A3022 RMK A01 T00761004  RH  057%=      5-min Rain = 0
KCL2 150123Z 13008KT 08/M00 A3022 RMK A01 T00761004  RH  057%=      5-min Rain = 0
KCL2 150124Z 13007KT 08/M00 A3022 RMK A01 T00761004  RH  057%=      5-min Rain = 0
KCL2 150125Z 13007KT 08/M00 A3022 RMK A01 T00751004  RH  057%=      5-min Rain = 0
KCL2 150126Z 13007KT 07/M01 A3022 RMK A01 T00741005  RH  057%=      5-min Rain = 0
KCL2 150127Z 13007KT 07/M00 A3022 RMK A01 T00741004  RH  057%=      5-min Rain = 0
KCL2 150128Z 13007KT 07/M00 A3022 RMK A01 T00741004  RH  058%=      5-min Rain = 0
KCL2 150129Z 13007KT 07/M01 A3022 RMK A01 T00731005  RH  058%=      5-min Rain = 0
KCL2 150130Z 13008KT 07/M01 A3022 RMK A01 T00731005  RH  058%=      5-min Rain = 0
KCL2 150131Z 13009KT 07/M00 A3022 RMK A01 T00731004  RH  058%=      5-min Rain = 0
KCL2 150132Z 14007KT 07/M01 A3022 RMK A01 T00731005  RH  058%=      5-min Rain = 0
KCL2 150133Z 13007KT 07/M00 A3022 RMK A01 T00731004  RH  058%=      5-min Rain = 0
KCL2 150134Z 13006KT 07/M00 A3022 RMK A01 T00731004  RH  058%=      5-min Rain = 0
KCL2 150135Z 13007KT 07/M01 A3022 RMK A01 T00721005  RH  058%=      5-min Rain = 0
KCL2 150136Z 13007KT 07/M01 A3023 RMK A01 T00721005  RH  058%=      5-min Rain = 0
KCL2 150137Z 13006KT 07/M00 A3023 RMK A01 T00721004  RH  058%=      5-min Rain = 0
KCL2 150138Z 13007KT 07/M00 A3023 RMK A01 T00721004  RH  058%=      5-min Rain = 0
KCL2 150139Z 13007KT 07/M01 A3023 RMK A01 T00721005  RH  058%=      5-min Rain = 0
KCL2 150140Z 13007KT 07/M00 A3023 RMK A01 T00721004  RH  058%=      5-min Rain = 0
KCL2 150141Z 13008KT 07/M00 A3023 RMK A01 T00721004  RH  059%=      5-min Rain = 0
KCL2 150142Z 13008KT 07/M00 A3023 RMK A01 T00711004  RH  059%=      5-min Rain = 0
KCL2 150143Z 13008KT 07/M00 A3023 RMK A01 T00701004  RH  059%=      5-min Rain = 0
KCL2 150144Z 13008KT 07/M00 A3023 RMK A01 T00711004  RH  059%=      5-min Rain = 0
KCL2 150145Z 13008KT 07/M00 A3023 RMK A01 T00711004  RH  059%=      5-min Rain = 0
KCL2 150146Z 13008KT 07/M00 A3023 RMK A01 T00701004  RH  059%=      5-min Rain = 0
KCL2 150147Z 13008KT 07/M00 A3023 RMK A01 T00701003  RH  059%=      5-min Rain = 0
KCL2 150148Z 13008KT 07/M00 A3022 RMK A01 T00701003  RH  060%=      5-min Rain = 0
KCL2 150149Z 13008KT 07/M00 A3022 RMK A01 T00691003  RH  060%=      5-min Rain = 0
KCL2 150150Z 13008KT 07/M00 A3023 RMK A01 T00691003  RH  060%=      5-min Rain = 0
KCL2 150151Z 13007KT 07/M00 A3023 RMK A01 T00691003  RH  060%=      5-min Rain = 0
KCL2 150152Z 13008KT 07/M00 A3023 RMK A01 T00691003  RH  060%=      5-min Rain = 0
KCL2 150153Z 13008KT 07/M00 A3023 RMK A01 T00691003  RH  060%=      5-min Rain = 0
KCL2 150154Z 13008KT 07/M00 A3023 RMK A01 T00701002  RH  060%=      5-min Rain = 0
KCL2 150155Z 13009KT 07/M00 A3023 RMK A01 T00701003  RH  060%=      5-min Rain = 0
KCL2 150156Z 14007KT 07/M00 A3023 RMK A01 T00711003  RH  060%=      5-min Rain = 0
KCL2 150157Z 13007KT 07/M00 A3023 RMK A01 T00711002  RH  060%=      5-min Rain = 0
KCL2 150158Z 13008KT 07/M00 A3023 RMK A01 T00701003  RH  060%=      5-min Rain = 0
KCL2 150159Z 13007KT 07/M00 A3023 RMK A01 T00701002  RH  060%=      5-min Rain = 0
KCL2 150200Z 13009KT 07/M00 A3023 RMK A01 T00691002  RH  060%=      5-min Rain = 0
KCL2 150201Z 13008KT 07/M00 A3023 RMK A01 T00681002  RH  061%=      5-min Rain = 0
KCL2 150202Z 13008KT 07/M00 A3023 RMK A01 T00681002  RH  061%=      5-min Rain = 0
KCL2 150203Z 13008KT 07/M00 A3023 RMK A01 T00681002  RH  061%=      5-min Rain = 0
KCL2 150204Z 13009KT 07/M00 A3023 RMK A01 T00681002  RH  061%=      5-min Rain = 0
KCL2 150205Z 13008KT 07/M00 A3023 RMK A01 T00681002  RH  061%=      5-min Rain = 0
KCL2 150206Z 13008KT 07/M00 A3023 RMK A01 T00671002  RH  061%=      5-min Rain = 0
KCL2 150207Z 12007KT 07/M00 A3023 RMK A01 T00671002  RH  061%=      5-min Rain = 0
KCL2 150208Z 13008KT 07/M00 A3023 RMK A01 T00661003  RH  062%=      5-min Rain = 0
KCL2 150209Z 13008KT 07/M00 A3023 RMK A01 T00661002  RH  062%=      5-min Rain = 0
KCL2 150210Z 13008KT 07/M00 A3023 RMK A01 T00651002  RH  062%=      5-min Rain = 0
KCL2 150211Z 13007KT 06/M00 A3023 RMK A01 T00641002  RH  062%=      5-min Rain = 0
KCL2 150212Z 13007KT 06/M00 A3023 RMK A01 T00641002  RH  063%=      5-min Rain = 0
KCL2 150213Z 13008KT 06/M00 A3023 RMK A01 T00641002  RH  063%=      5-min Rain = 0
KCL2 150214Z 13008KT 06/M00 A3023 RMK A01 T00641001  RH  063%=      5-min Rain = 0
KCL2 150215Z 13007KT 07/M00 A3023 RMK A01 T00651001  RH  063%=      5-min Rain = 0
KCL2 150216Z 13007KT 07/M00 A3023 RMK A01 T00651001  RH  063%=      5-min Rain = 0
KCL2 150217Z 13008KT 06/M00 A3023 RMK A01 T00641001  RH  063%=      5-min Rain = 0
KCL2 150218Z 14008KT 07/00 A3023 RMK A01 T006500-0  RH  063%=      5-min Rain = 0
KCL2 150219Z 13008KT 07/00 A3023 RMK A01 T006500-0  RH  063%=      5-min Rain = 0
KCL2 150220Z 14008KT 07/00 A3023 RMK A01 T006500-0  RH  063%=      5-min Rain = 0
KCL2 150221Z 14008KT 07/00 A3023 RMK A01 T00660000  RH  063%=      5-min Rain = 0
KCL2 150222Z 14009KT 07/00 A3023 RMK A01 T00650000  RH  063%=      5-min Rain = 0
KCL2 150223Z 14009KT 07/00 A3023 RMK A01 T00660001  RH  063%=      5-min Rain = 0
KCL2 150224Z 14010KT 07/00 A3023 RMK A01 T00660001  RH  063%=      5-min Rain = 0
KCL2 150225Z 14009KT 07/00 A3023 RMK A01 T00670002  RH  063%=      5-min Rain = 0
KCL2 150226Z 14010KT 07/00 A3023 RMK A01 T00680002  RH  063%=      5-min Rain = 0
KCL2 150227Z 14010KT 07/00 A3023 RMK A01 T00680002  RH  063%=      5-min Rain = 0
KCL2 150228Z 14008KT 07/00 A3023 RMK A01 T00690002  RH  062%=      5-min Rain = 0
KCL2 150229Z 14011KT 07/00 A3023 RMK A01 T00680002  RH  063%=      5-min Rain = 0
KCL2 150230Z 15010KT 07/00 A3023 RMK A01 T00680002  RH  063%=      5-min Rain = 0
KCL2 150231Z 14009KT 07/00 A3023 RMK A01 T00690002  RH  062%=      5-min Rain = 0
KCL2 150232Z 15010KT 07/00 A3023 RMK A01 T00690002  RH  062%=      5-min Rain = 0
KCL2 150233Z 14010KT 07/00 A3023 RMK A01 T00690002  RH  062%=      5-min Rain = 0
KCL2 150234Z 14010KT 07/00 A3023 RMK A01 T00680002  RH  063%=      5-min Rain = 0
KCL2 150235Z 15009KT 07/00 A3023 RMK A01 T00680002  RH  063%=      5-min Rain = 0
KCL2 150236Z 15010KT 07/00 A3023 RMK A01 T00680002  RH  063%=      5-min Rain = 0
KCL2 150237Z 14010KT 07/00 A3023 RMK A01 T00680002  RH  063%=      5-min Rain = 0
KCL2 150238Z 14009KT 07/00 A3023 RMK A01 T00680002  RH  063%=      5-min Rain = 0
KCL2 150239Z 14009KT 07/00 A3023 RMK A01 T00680002  RH  063%=      5-min Rain = 0
KCL2 150240Z 14008KT 07/00 A3023 RMK A01 T00680002  RH  063%=      5-min Rain = 0
KCL2 150241Z 14011KT 07/00 A3023 RMK A01 T00680002  RH  063%=      5-min Rain = 0
KCL2 150242Z 15009KT 07/00 A3023 RMK A01 T00680002  RH  063%=      5-min Rain = 0
KCL2 150243Z 14010KT 07/00 A3023 RMK A01 T00680002  RH  063%=      5-min Rain = 0
KCL2 150244Z 14010KT 07/00 A3023 RMK A01 T00690003  RH  063%=      5-min Rain = 0
KCL2 150245Z 14009KT 07/00 A3023 RMK A01 T00690003  RH  063%=      5-min Rain = 0
KCL2 150246Z 14010KT 07/00 A3023 RMK A01 T00680003  RH  063%=      5-min Rain = 0
KCL2 150247Z 15010KT 07/00 A3023 RMK A01 T00680003  RH  063%=      5-min Rain = 0
KCL2 150248Z 14009KT 07/00 A3023 RMK A01 T00680003  RH  063%=      5-min Rain = 0
KCL2 150249Z 15011KT 07/00 A3023 RMK A01 T00680002  RH  063%=      5-min Rain = 0
KCL2 150250Z 15009KT 07/00 A3023 RMK A01 T00680003  RH  063%=      5-min Rain = 0
KCL2 150251Z 15010KT 07/00 A3023 RMK A01 T00680003  RH  063%=      5-min Rain = 0
KCL2 150252Z 15010KT 07/00 A3023 RMK A01 T00670003  RH  063%=      5-min Rain = 0
KCL2 150253Z 15010KT 07/00 A3023 RMK A01 T00670003  RH  063%=      5-min Rain = 0
KCL2 150254Z 14011KT 07/00 A3023 RMK A01 T00670002  RH  063%=      5-min Rain = 0
KCL2 150255Z 15011KT 07/00 A3023 RMK A01 T00680002  RH  063%=      5-min Rain = 0
KCL2 150256Z 15010KT 07/00 A3023 RMK A01 T00680002  RH  063%=      5-min Rain = 0
KCL2 150257Z 15010KT 07/00 A3023 RMK A01 T00670003  RH  063%=      5-min Rain = 0
KCL2 150258Z 15012KT 07/00 A3023 RMK A01 T00670003  RH  064%=      5-min Rain = 0
KCL2 150259Z 15010KT 07/00 A3023 RMK A01 T00670003  RH  064%=      5-min Rain = 0
KCL2 150300Z 15011KT 07/00 A3023 RMK A01 T00670003  RH  064%=      5-min Rain = 0
KCL2 150301Z 15013KT 07/00 A3023 RMK A01 T00660003  RH  064%=      5-min Rain = 0
KCL2 150302Z 15011KT 07/00 A3023 RMK A01 T00660002  RH  064%=      5-min Rain = 0
KCL2 150303Z 15010KT 07/00 A3023 RMK A01 T00660002  RH  064%=      5-min Rain = 0
KCL2 150304Z 15010G15KT 07/00 A3023 RMK A01 T00660002  RH  064%=      5-min Rain = 0
KCL2 150305Z 15010KT 07/00 A3023 RMK A01 T00650002  RH  064%=      5-min Rain = 0
KCL2 150306Z 15012KT 07/00 A3023 RMK A01 T00650003  RH  064%=      5-min Rain = 0
KCL2 150307Z 15010KT 07/00 A3023 RMK A01 T00650003  RH  064%=      5-min Rain = 0
KCL2 150308Z 15009KT 07/00 A3023 RMK A01 T00650003  RH  064%=      5-min Rain = 0
KCL2 150309Z 15009KT 06/00 A3023 RMK A01 T00640003  RH  065%=      5-min Rain = 0
KCL2 150310Z 15009KT 06/00 A3024 RMK A01 T00630002  RH  065%=      5-min Rain = 0
KCL2 150311Z 15008KT 06/00 A3024 RMK A01 T00630003  RH  065%=      5-min Rain = 0
KCL2 150312Z 15010KT 06/00 A3024 RMK A01 T00620003  RH  066%=      5-min Rain = 0
KCL2 150313Z 15009KT 06/00 A3024 RMK A01 T00620002  RH  065%=      5-min Rain = 0
KCL2 150314Z 15009KT 06/00 A3024 RMK A01 T00620002  RH  065%=      5-min Rain = 0
KCL2 150315Z 15009KT 06/00 A3023 RMK A01 T00630002  RH  065%=      5-min Rain = 0
KCL2 150316Z 15009KT 06/00 A3023 RMK A01 T00630003  RH  065%=      5-min Rain = 0
KCL2 150317Z 15009KT 06/00 A3023 RMK A01 T00630003  RH  065%=      5-min Rain = 0
KCL2 150318Z 15008KT 06/00 A3023 RMK A01 T00630003  RH  065%=      5-min Rain = 0
KCL2 150319Z 15009KT 06/00 A3023 RMK A01 T00630003  RH  065%=      5-min Rain = 0
KCL2 150320Z 15009KT 06/00 A3024 RMK A01 T00630003  RH  065%=      5-min Rain = 0
KCL2 150321Z 15007KT 06/00 A3024 RMK A01 T00630003  RH  065%=      5-min Rain = 0
KCL2 150322Z 15008KT 06/00 A3024 RMK A01 T00630003  RH  065%=      5-min Rain = 0
KCL2 150323Z 15007KT 06/00 A3024 RMK A01 T00630003  RH  065%=      5-min Rain = 0
KCL2 150324Z 15010KT 06/00 A3024 RMK A01 T00630003  RH  066%=      5-min Rain = 0
KCL2 150325Z 15009KT 06/00 A3024 RMK A01 T00630003  RH  066%=      5-min Rain = 0
KCL2 150326Z 15010KT 06/00 A3023 RMK A01 T00630003  RH  066%=      5-min Rain = 0
KCL2 150327Z 15011KT 06/00 A3023 RMK A01 T00630003  RH  065%=      5-min Rain = 0
KCL2 150328Z 14009KT 06/00 A3023 RMK A01 T00640003  RH  065%=      5-min Rain = 0
KCL2 150329Z 15009KT 06/00 A3023 RMK A01 T00630003  RH  065%=      5-min Rain = 0
KCL2 150330Z 14009KT 06/00 A3023 RMK A01 T00630004  RH  066%=      5-min Rain = 0
KCL2 150331Z 15008KT 06/00 A3023 RMK A01 T00620003  RH  066%=      5-min Rain = 0
KCL2 150332Z 14009KT 06/00 A3023 RMK A01 T00620003  RH  066%=      5-min Rain = 0
KCL2 150333Z 15008KT 06/00 A3023 RMK A01 T00610003  RH  067%=      5-min Rain = 0
KCL2 150334Z 15008KT 06/00 A3023 RMK A01 T00600004  RH  067%=      5-min Rain = 0
KCL2 150335Z 15008KT 06/00 A3023 RMK A01 T00600004  RH  067%=      5-min Rain = 0
KCL2 150336Z 15008KT 06/00 A3023 RMK A01 T00600004  RH  067%=      5-min Rain = 0
KCL2 150337Z 15010KT 06/00 A3023 RMK A01 T00590004  RH  068%=      5-min Rain = 0
KCL2 150338Z 15009KT 06/00 A3023 RMK A01 T00600004  RH  067%=      5-min Rain = 0
KCL2 150339Z 15009KT 06/00 A3023 RMK A01 T00600004  RH  067%=      5-min Rain = 0
KCL2 150340Z 15010KT 06/00 A3023 RMK A01 T00600004  RH  067%=      5-min Rain = 0
KCL2 150341Z 15011KT 06/00 A3023 RMK A01 T00600004  RH  067%=      5-min Rain = 0
KCL2 150342Z 15010KT 06/00 A3023 RMK A01 T00600004  RH  067%=      5-min Rain = 0
KCL2 150343Z 15010KT 06/00 A3023 RMK A01 T00600004  RH  067%=      5-min Rain = 0
KCL2 150344Z 16011KT 06/00 A3023 RMK A01 T00600004  RH  067%=      5-min Rain = 0
KCL2 150345Z 16009KT 06/00 A3023 RMK A01 T00600004  RH  067%=      5-min Rain = 0
KCL2 150346Z 15010KT 06/00 A3023 RMK A01 T00600004  RH  067%=      5-min Rain = 0
KCL2 150347Z 15011KT 06/00 A3023 RMK A01 T00600004  RH  067%=      5-min Rain = 0
KCL2 150348Z 16011KT 06/00 A3023 RMK A01 T00600004  RH  067%=      5-min Rain = 0
KCL2 150349Z 15009KT 06/00 A3023 RMK A01 T00600004  RH  067%=      5-min Rain = 0
KCL2 150350Z 15009KT 06/00 A3023 RMK A01 T00600004  RH  067%=      5-min Rain = 0
KCL2 150351Z 16009KT 06/00 A3023 RMK A01 T00600004  RH  068%=      5-min Rain = 0
KCL2 150352Z 15010KT 06/00 A3023 RMK A01 T00590004  RH  068%=      5-min Rain = 0
KCL2 150353Z 16010KT 06/00 A3023 RMK A01 T00580004  RH  068%=      5-min Rain = 0
KCL2 150354Z 16010G15KT 06/01 A3022 RMK A01 T00580005  RH  068%=      5-min Rain = 0
KCL2 150355Z 16011KT 06/00 A3022 RMK A01 T00580004  RH  069%=      5-min Rain = 0
KCL2 150356Z 16011KT 06/00 A3022 RMK A01 T00580004  RH  069%=      5-min Rain = 0
KCL2 150357Z 16012KT 06/00 A3022 RMK A01 T00580004  RH  068%=      5-min Rain = 0
KCL2 150358Z 15011KT 06/00 A3022 RMK A01 T00580004  RH  068%=      5-min Rain = 0
KCL2 150359Z 16010KT 06/00 A3022 RMK A01 T00580004  RH  068%=      5-min Rain = 0
KCL2 150400Z 16011KT 06/00 A3022 RMK A01 T00580004  RH  069%=      5-min Rain = 0
KCL2 150401Z 16011KT 06/00 A3022 RMK A01 T00570004  RH  069%=      5-min Rain = 0
KCL2 150402Z 16011KT 06/00 A3022 RMK A01 T00560004  RH  069%=      5-min Rain = 0
KCL2 150403Z 15010KT 06/00 A3023 RMK A01 T00560004  RH  069%=      5-min Rain = 0
KCL2 150404Z 15009KT 06/00 A3022 RMK A01 T00550004  RH  069%=      5-min Rain = 0
KCL2 150405Z 16012KT 06/00 A3022 RMK A01 T00550004  RH  069%=      5-min Rain = 0
KCL2 150406Z 15012KT 06/00 A3022 RMK A01 T00560004  RH  069%=      5-min Rain = 0
KCL2 150407Z 15012KT 06/00 A3022 RMK A01 T00550004  RH  069%=      5-min Rain = 0
KCL2 150408Z 15010KT 06/00 A3022 RMK A01 T00550004  RH  069%=      5-min Rain = 0
KCL2 150409Z 15012KT 06/00 A3022 RMK A01 T00550004  RH  070%=      5-min Rain = 0
KCL2 150410Z 15010KT 06/00 A3022 RMK A01 T00550004  RH  070%=      5-min Rain = 0
KCL2 150411Z 15010KT 05/00 A3022 RMK A01 T00540003  RH  070%=      5-min Rain = 0
KCL2 150412Z 15010KT 05/00 A3022 RMK A01 T00540003  RH  070%=      5-min Rain = 0
KCL2 150413Z 16012KT 05/00 A3022 RMK A01 T00530003  RH  070%=      5-min Rain = 0
KCL2 150414Z 15012KT 05/00 A3022 RMK A01 T00530004  RH  070%=      5-min Rain = 0
KCL2 150415Z 15011KT 05/00 A3022 RMK A01 T00530004  RH  070%=      5-min Rain = 0
KCL2 150416Z 16011G16KT 05/00 A3022 RMK A01 T00530004  RH  070%=      5-min Rain = 0
KCL2 150417Z 15011KT 05/00 A3022 RMK A01 T00530004  RH  071%=      5-min Rain = 0
KCL2 150418Z 15010KT 05/00 A3022 RMK A01 T00530004  RH  071%=      5-min Rain = 0
KCL2 150419Z 15010KT 05/00 A3022 RMK A01 T00520004  RH  071%=      5-min Rain = 0
KCL2 150420Z 16011KT 05/00 A3022 RMK A01 T00520004  RH  071%=      5-min Rain = 0
KCL2 150421Z 16013G18KT 05/00 A3022 RMK A01 T00520004  RH  071%=      5-min Rain = 0
KCL2 150422Z 16011KT 05/00 A3022 RMK A01 T00520004  RH  071%=      5-min Rain = 0
KCL2 150423Z 16013KT 05/00 A3022 RMK A01 T00530004  RH  071%=      5-min Rain = 0
KCL2 150424Z 16011KT 05/00 A3022 RMK A01 T00520004  RH  071%=      5-min Rain = 0
KCL2 150425Z 16012KT 05/01 A3022 RMK A01 T00520005  RH  071%=      5-min Rain = 0
KCL2 150426Z 16012KT 05/01 A3022 RMK A01 T00520005  RH  072%=      5-min Rain = 0
KCL2 150427Z 16012KT 05/01 A3022 RMK A01 T00520005  RH  072%=      5-min Rain = 0
KCL2 150428Z 16011KT 05/01 A3022 RMK A01 T00510005  RH  072%=      5-min Rain = 0
KCL2 150429Z 16011KT 05/01 A3022 RMK A01 T00510005  RH  072%=      5-min Rain = 0
KCL2 150430Z 16014G19KT 05/01 A3022 RMK A01 T00510005  RH  072%=      5-min Rain = 0
KCL2 150431Z 16015KT 05/01 A3022 RMK A01 T00510005  RH  072%=      5-min Rain = 0
KCL2 150432Z 16013KT 05/01 A3022 RMK A01 T00510005  RH  072%=      5-min Rain = 0
KCL2 150433Z 16011G16KT 05/01 A3022 RMK A01 T00520005  RH  072%=      5-min Rain = 0
KCL2 150434Z 16012G17KT 05/01 A3022 RMK A01 T00520006  RH  072%=      5-min Rain = 0
KCL2 150435Z 16009KT 05/01 A3022 RMK A01 T00520006  RH  072%=      5-min Rain = 0
KCL2 150436Z 16012KT 05/01 A3022 RMK A01 T00510005  RH  072%=      5-min Rain = 0
KCL2 150437Z 17010KT 05/01 A3022 RMK A01 T00510005  RH  072%=      5-min Rain = 0
KCL2 150438Z 16013KT 05/01 A3022 RMK A01 T00510006  RH  073%=      5-min Rain = 0
KCL2 150439Z 17013KT 05/01 A3022 RMK A01 T00500005  RH  073%=      5-min Rain = 0
KCL2 150440Z 16012KT 05/01 A3021 RMK A01 T00510006  RH  073%=      5-min Rain = 0
KCL2 150441Z 16013KT 05/01 A3021 RMK A01 T00510006  RH  073%=      5-min Rain = 0
KCL2 150442Z 17012G17KT 05/01 A3021 RMK A01 T00510006  RH  072%=      5-min Rain = 0
KCL2 150443Z 17013KT 05/01 A3021 RMK A01 T00510006  RH  073%=      5-min Rain = 0
KCL2 150444Z 16013KT 05/01 A3021 RMK A01 T00510006  RH  073%=      5-min Rain = 0
KCL2 150445Z 16012G17KT 05/01 A3021 RMK A01 T00510006  RH  072%=      5-min Rain = 0
KCL2 150446Z 16012G17KT 05/01 A3021 RMK A01 T00520006  RH  072%=      5-min Rain = 0
KCL2 150447Z 16017G22KT 05/01 A3021 RMK A01 T00520006  RH  072%=      5-min Rain = 0
KCL2 150448Z 17015G21KT 05/01 A3021 RMK A01 T00520006  RH  072%=      5-min Rain = 0
KCL2 150449Z 16014G20KT 05/01 A3021 RMK A01 T00520006  RH  072%=      5-min Rain = 0
KCL2 150450Z 16014G19KT 05/01 A3021 RMK A01 T00520007  RH  072%=      5-min Rain = 0
KCL2 150451Z 17013KT 05/01 A3021 RMK A01 T00520007  RH  072%=      5-min Rain = 0
KCL2 150452Z 16014KT 05/01 A3021 RMK A01 T00520007  RH  073%=      5-min Rain = 0
KCL2 150453Z 16013G18KT 05/01 A3021 RMK A01 T00520007  RH  073%=      5-min Rain = 0
KCL2 150454Z 17011KT 05/01 A3021 RMK A01 T00520007  RH  073%=      5-min Rain = 0
KCL2 150455Z 17014G19KT 05/01 A3021 RMK A01 T00510007  RH  073%=      5-min Rain = 0
KCL2 150456Z 17014G20KT 05/01 A3021 RMK A01 T00510007  RH  073%=      5-min Rain = 0
KCL2 150457Z 17012G17KT 05/01 A3021 RMK A01 T00510007  RH  073%=      5-min Rain = 0
KCL2 150458Z 17013G19KT 05/01 A3021 RMK A01 T00510007  RH  073%=      5-min Rain = 0
KCL2 150459Z 17014KT 05/01 A3021 RMK A01 T00510008  RH  074%=      5-min Rain = 0
KCL2 150500Z 17013G18KT 05/01 A3021 RMK A01 T00510008  RH  074%=      5-min Rain = 0
KCL2 150501Z 17013KT 05/01 A3021 RMK A01 T00510008  RH  074%=      5-min Rain = 0
KCL2 150502Z 17012KT 05/01 A3021 RMK A01 T00510007  RH  074%=      5-min Rain = 0
KCL2 150503Z 17013KT 05/01 A3021 RMK A01 T00500007  RH  074%=      5-min Rain = 0
KCL2 150504Z 17012KT 05/01 A3021 RMK A01 T00500008  RH  074%=      5-min Rain = 0
KCL2 150505Z 17016KT 05/01 A3021 RMK A01 T00500008  RH  074%=      5-min Rain = 0
KCL2 150506Z 17015KT 05/01 A3021 RMK A01 T00500008  RH  074%=      5-min Rain = 0
KCL2 150507Z 17017KT 05/01 A3021 RMK A01 T00510008  RH  074%=      5-min Rain = 0
KCL2 150508Z 18012KT 05/01 A3021 RMK A01 T00510008  RH  074%=      5-min Rain = 0
KCL2 150509Z 17012KT 05/01 A3021 RMK A01 T00510008  RH  074%=      5-min Rain = 0
KCL2 150510Z 17014KT 05/01 A3021 RMK A01 T00500008  RH  074%=      5-min Rain = 0
KCL2 150511Z 17017KT 05/01 A3021 RMK A01 T00500008  RH  074%=      5-min Rain = 0
KCL2 150512Z 17015KT 05/01 A3021 RMK A01 T00510008  RH  074%=      5-min Rain = 0
KCL2 150513Z 17017KT 05/01 A3021 RMK A01 T00510008  RH  074%=      5-min Rain = 0
KCL2 150514Z 17013G19KT 05/01 A3021 RMK A01 T00510009  RH  074%=      5-min Rain = 0
KCL2 150515Z 17013KT 05/01 A3021 RMK A01 T00510009  RH  074%=      5-min Rain = 0
KCL2 150516Z 17012G21KT 05/01 A3021 RMK A01 T00510008  RH  074%=      5-min Rain = 0
KCL2 150517Z 17016G21KT 05/01 A3021 RMK A01 T00500009  RH  074%=      5-min Rain = 0
KCL2 150518Z 17019KT 05/01 A3021 RMK A01 T00510009  RH  074%=      5-min Rain = 0
KCL2 150519Z 17017KT 05/01 A3021 RMK A01 T00510009  RH  074%=      5-min Rain = 0
KCL2 150520Z 17016G22KT 05/01 A3021 RMK A01 T00510009  RH  074%=      5-min Rain = 0
KCL2 150521Z 17016G21KT 05/01 A3021 RMK A01 T00520009  RH  074%=      5-min Rain = 0
KCL2 150522Z 17015KT 05/01 A3021 RMK A01 T00520009  RH  074%=      5-min Rain = 0
KCL2 150523Z 17014G20KT 05/01 A3021 RMK A01 T00520009  RH  074%=      5-min Rain = 0
KCL2 150524Z 17015KT 05/01 A302 RMK A01 T00520009  RH  074%=      5-min Rain = 0
KCL2 150525Z 17015KT 05/01 A3021 RMK A01 T00520009  RH  074%=      5-min Rain = 0
KCL2 150526Z 17015KT 05/01 A3021 RMK A01 T00510009  RH  074%=      5-min Rain = 0
KCL2 150527Z 17015KT 05/01 A3021 RMK A01 T00510009  RH  074%=      5-min Rain = 0
KCL2 150528Z 17015KT 05/01 A3021 RMK A01 T00510009  RH  074%=      5-min Rain = 0
KCL2 150529Z 17013KT 05/01 A3021 RMK A01 T00510008  RH  074%=      5-min Rain = 0
KCL2 150530Z 17015KT 05/01 A3021 RMK A01 T00510009  RH  074%=      5-min Rain = 0
KCL2 150531Z 18012KT 05/01 A3021 RMK A01 T00510008  RH  074%=      5-min Rain = 0
KCL2 150532Z 17012KT 05/01 A3021 RMK A01 T00510008  RH  074%=      5-min Rain = 0
KCL2 150533Z 17015KT 05/01 A3021 RMK A01 T00500009  RH  074%=      5-min Rain = 0
KCL2 150534Z 17015KT 05/01 A3021 RMK A01 T00500009  RH  075%=      5-min Rain = 0
KCL2 150535Z 17013KT 05/01 A302 RMK A01 T00500009  RH  074%=      5-min Rain = 0
KCL2 150536Z 17013KT 05/01 A302 RMK A01 T00510009  RH  074%=      5-min Rain = 0
KCL2 150537Z 17011KT 05/01 A302 RMK A01 T00510009  RH  074%=      5-min Rain = 0
KCL2 150538Z 17013G18KT 05/01 A302 RMK A01 T00510008  RH  074%=      5-min Rain = 0
KCL2 150539Z 17013G18KT 05/01 A302 RMK A01 T00510009  RH  074%=      5-min Rain = 0
KCL2 150540Z 17015KT 05/01 A302 RMK A01 T00510009  RH  074%=      5-min Rain = 0
KCL2 150541Z 18013KT 05/01 A302 RMK A01 T00520009  RH  074%=      5-min Rain = 0
KCL2 150542Z 17012G17KT 05/01 A302 RMK A01 T00520008  RH  074%=      5-min Rain = 0
KCL2 150543Z 17013KT 05/01 A302 RMK A01 T00520008  RH  074%=      5-min Rain = 0
KCL2 150544Z 17014KT 05/01 A302 RMK A01 T00520008  RH  074%=      5-min Rain = 0
KCL2 150545Z 17016KT 05/01 A302 RMK A01 T00520008  RH  073%=      5-min Rain = 0
KCL2 150546Z 18014KT 05/01 A302 RMK A01 T00530009  RH  073%=      5-min Rain = 0
KCL2 150547Z 17013G18KT 05/01 A302 RMK A01 T00530009  RH  073%=      5-min Rain = 0
KCL2 150548Z 18016KT 05/01 A302 RMK A01 T00520008  RH  073%=      5-min Rain = 0
KCL2 150549Z 17013KT 05/01 A302 RMK A01 T00520008  RH  073%=      5-min Rain = 0
KCL2 150550Z 18014KT 05/01 A302 RMK A01 T00530008  RH  073%=      5-min Rain = 0
KCL2 150551Z 17013KT 05/01 A302 RMK A01 T00530008  RH  073%=      5-min Rain = 0
KCL2 150552Z 17013KT 05/01 A302 RMK A01 T00530009  RH  073%=      5-min Rain = 0
KCL2 150553Z 18017G22KT 05/01 A302 RMK A01 T00520009  RH  073%=      5-min Rain = 0
KCL2 150554Z 17015G20KT 05/01 A3019 RMK A01 T00520009  RH  073%=      5-min Rain = 0
KCL2 150555Z 17015KT 05/01 A3019 RMK A01 T00520008  RH  073%=      5-min Rain = 0
KCL2 150556Z 18014KT 05/01 A3019 RMK A01 T00530009  RH  073%=      5-min Rain = 0
KCL2 150557Z 18016KT 05/01 A3019 RMK A01 T00520008  RH  073%=      5-min Rain = 0
KCL2 150558Z 17015KT 05/01 A3019 RMK A01 T00520008  RH  073%=      5-min Rain = 0
KCL2 150559Z 17016G21KT 05/01 A3019 RMK A01 T00520008  RH  073%=      5-min Rain = 0

Page generated in 0.1407 seconds.